Darstellungsparameter: Aktuell verwendete Einstellungen:
Skalierung der Graphiken ... ?
xyx+y,   Skalierungsfaktor:      Skalierung: Modus: x, Faktor: 1
Darstellungszeitraum ... ?
Vom - - bis: - -   Zeitraum: 16.02.2014 - 15.02.2019
Min/Max/Avg-Anzeige ... ?
Zeige MMA aktuell
Zeige MMA Monat
Zeige MMA alles
Zeige --A aktuell
Zeige --A Monat
Zeige --A alles
Keine MMA-Anzeige
MMA:
Minimum Maximum Average (ber die Originaldaten)
MMA-Basis: 16.02.2014 - 15.02.2019
Quicknavigation für Darstellung... ?
Tage:      1T, 2T, 3T, 5T -1T -2T -3T -5T +1T +2T +3T +5T
Wochen: 1W, 2W, 3W -1W -2W -3W +1W +2W +3W
Monate: 1M, 3M, 6M -1M -3M -6M +1M +3M +6M
Jahre:    1J, 3J, 5J, 10J -1J -3J -5J -10J +1J +3J +5J +10J
Nutze für die Darstellung ... ?
Originaldaten oder ...
Mittelwerte Minima Maxima auf...
Stundenbasis Tagesbasis Wochenbasis
Monatsbasis Jahresbasis      Datenbasis: Mittelwerte auf Tagesbasis
Darstellen als:
Statistik (Auto) Statistik J:M      Darstellung:
Zur Graphik,    zurück zur Übersicht aller Sensoren.
 
Tabellarische Datenbersicht: ?
 
Sensor: Nr:Datum:Temp:Feuchte:Taupunkt:
Aussen-T/F 1 16-02-2014 00:00:00 7.36493 C 80.5694 % 4.25 C
2 17-02-2014 00:00:00 3.59861 C 91.7118 % 2.38 C
3 18-02-2014 00:00:00 3.38715 C 94.0590 % 2.52 C
4 19-02-2014 00:00:00 7.825 C 84.9722 % 5.46 C
5 20-02-2014 00:00:00 8.68958 C 82.6215 % 5.9 C
6 21-02-2014 00:00:00 7.64062 C 84.5451 % 5.21 C
7 22-02-2014 00:00:00 4.99861 C 87.1563 % 3.05 C
8 23-02-2014 00:00:00 5.94204 C 83.6694 % 3.39 C
9 24-02-2014 00:00:00 5.86389 C 80.9444 % 2.85 C
10 25-02-2014 00:00:00 6.68681 C 82.1910 % 3.87 C
11 26-02-2014 00:00:00 8.58182 C 81.5382 % 5.61 C
12 27-02-2014 00:00:00 5.86275 C 84.1961 % 3.41 C
13 28-02-2014 00:00:00 6.2146 C 87.8248 % 4.35 C
14 01-03-2014 00:00:00 5.44375 C 88.4410 % 3.69 C
15 02-03-2014 00:00:00 3.55069 C 87.5208 % 1.68 C
16 03-03-2014 00:00:00 5.27743 C 86.6458 % 3.24 C
17 04-03-2014 00:00:00 4.21701 C 86.7118 % 2.2 C
18 05-03-2014 00:00:00 4.68235 C 86.5059 % 2.63 C
19 06-03-2014 00:00:00 3.87951 C 89.4306 % 2.3 C
20 07-03-2014 00:00:00 6.23037 C 80.7383 % 3.17 C
21 08-03-2014 00:00:00 7.3847 C 80.0427 % 4.18 C
22 09-03-2014 00:00:00 7.27263 C 76.4772 % 3.42 C
23 10-03-2014 00:00:00 7.44444 C 75.5035 % 3.41 C
24 11-03-2014 00:00:00 8.4184 C 78.6424 % 4.93 C
25 12-03-2014 00:00:00 9.07812 C 74.1354 % 4.72 C
Sensor: Nr:Datum:Temp:Feuchte:Taupunkt:
Aussen-T/F 26 13-03-2014 00:00:00 8.16007 C 73.3681 % 3.69 C
27 14-03-2014 00:00:00 7.91944 C 76.8993 % 4.12 C
28 15-03-2014 00:00:00 8.97326 C 77.3021 % 5.22 C
29 16-03-2014 00:00:00 11.50486 C 77.2500 % 7.67 C
30 17-03-2014 00:00:00 10.27882 C 81.5486 % 7.27 C
31 18-03-2014 00:00:00 9.4066 C 83.2882 % 6.72 C
32 19-03-2014 00:00:00 12.2875 C 70.5521 % 7.1 C
33 20-03-2014 00:00:00 12.49333 C 67.2772 % 6.6 C
34 21-03-2014 00:00:00 13.1375 C 66.5069 % 7.05 C
35 22-03-2014 00:00:00 8.65208 C 83.0799 % 5.95 C
36 23-03-2014 00:00:00 6.03507 C 81.4861 % 3.11 C
37 24-03-2014 00:00:00 5.42632 C 80.7404 % 2.39 C
38 25-03-2014 00:00:00 4.1625 C 82.4271 % 1.44 C
39 26-03-2014 00:00:00 4.56076 C 78.8125 % 1.21 C
40 27-03-2014 00:00:00 8.14604 C 73.6475 % 3.73 C
41 28-03-2014 00:00:00 10.60972 C 66.4167 % 4.62 C
42 29-03-2014 00:00:00 10.34963 C 70.5809 % 5.24 C
43 30-03-2014 00:00:00 9.15619 C 76.1429 % 5.18 C
44 31-03-2014 00:00:00 12.96562 C 65.8924 % 6.75 C
45 01-04-2014 00:00:00 13.77519 C 67.7366 % 7.92 C
46 02-04-2014 00:00:00 13.90458 C 68.9754 % 8.31 C
47 03-04-2014 00:00:00 12.54324 C 77.5811 % 8.74 C
48 04-04-2014 00:00:00 14.95971 C 74.9173 % 10.55 C
49 05-04-2014 00:00:00 13.00531 C 86.2612 % 10.77 C
50 06-04-2014 00:00:00 11.67782 C 83.0879 % 8.91 C
Sensor: Nr:Datum:Temp:Feuchte:Taupunkt:
Aussen-T/F 51 07-04-2014 00:00:00 15.95041 C 75.4713 % 11.62 C
52 08-04-2014 00:00:00 12.18521 C 67.1585 % 6.28 C
53 09-04-2014 00:00:00 9.27426 C 75.9154 % 5.25 C
54 10-04-2014 00:00:00 10.31543 C 77.0864 % 6.48 C
55 11-04-2014 00:00:00 14.56849 C 72.5000 % 9.69 C
56 12-04-2014 00:00:00 12.65368 C 70.8982 % 7.52 C
57 13-04-2014 00:00:00 11.60669 C 71.0599 % 6.55 C
58 14-04-2014 00:00:00 9.7593 C 71.2491 % 4.81 C
59 15-04-2014 00:00:00 7.10171 C 73.7991 % 2.75 C
60 16-04-2014 00:00:00 12.97192 C 49.4521 % 2.65 C
61 17-04-2014 00:00:00 9.85313 C 63.3021 % 3.22 C
62 18-04-2014 00:00:00 10.72049 C 64.8750 % 4.39 C
63 19-04-2014 00:00:00 10.82049 C 71.8993 % 5.96 C
64 20-04-2014 00:00:00 14.91825 C 70.5509 % 9.62 C
65 21-04-2014 00:00:00 12.49479 C 77.9896 % 8.77 C
66 22-04-2014 00:00:00 12.82847 C 85.6076 % 10.48 C
67 23-04-2014 00:00:00 13.43958 C 81.1771 % 10.28 C
68 24-04-2014 00:00:00 15.42535 C 79.0035 % 11.8 C
69 25-04-2014 00:00:00 16.71562 C 74.1319 % 12.09 C
70 26-04-2014 00:00:00 15.2 C 74.7604 % 10.75 C
71 27-04-2014 00:00:00 13.07674 C 81.7986 % 10.04 C
72 28-04-2014 00:00:00 12.80243 C 79.8715 % 9.42 C
73 29-04-2014 00:00:00 13.43403 C 90.3056 % 11.88 C
74 30-04-2014 00:00:00 14.53507 C 84.7500 % 12 C
75 01-05-2014 00:00:00 14.73611 C 81.3611 % 11.58 C
Sensor: Nr:Datum:Temp:Feuchte:Taupunkt:
Aussen-T/F 76 02-05-2014 00:00:00 11.71319 C 86.6736 % 9.57 C
77 03-05-2014 00:00:00 10.92708 C 61.0069 % 3.71 C
78 04-05-2014 00:00:00 9.61042 C 68.0590 % 4.02 C
79 05-05-2014 00:00:00 12.60069 C 67.5521 % 6.76 C
80 06-05-2014 00:00:00 13.72083 C 74.2778 % 9.23 C
81 07-05-2014 00:00:00 13.05764 C 84.9931 % 10.6 C
82 08-05-2014 00:00:00 12.32847 C 84.6146 % 9.81 C
83 09-05-2014 00:00:00 15.33403 C 71.0833 % 10.13 C
84 10-05-2014 00:00:00 12.40903 C 81.6528 % 9.36 C
85 11-05-2014 00:00:00 11.45764 C 80.1667 % 8.16 C
86 12-05-2014 00:00:00 11.1941 C 74.9167 % 6.92 C
87 13-05-2014 00:00:00 10.30729 C 85.3368 % 7.96 C
88 14-05-2014 00:00:00 10.63542 C 76.9514 % 6.77 C
89 15-05-2014 00:00:00 10.00382 C 80.4757 % 6.8 C
90 16-05-2014 00:00:00 13.25347 C 73.1250 % 8.55 C
91 17-05-2014 00:00:00 14.22292 C 71.7500 % 9.2 C
92 18-05-2014 00:00:00 15.4809 C 74.3021 % 10.93 C
93 19-05-2014 00:00:00 17.57188 C 70.6944 % 12.19 C
94 20-05-2014 00:00:00 19.46562 C 67.3681 % 13.26 C
95 21-05-2014 00:00:00 20.29792 C 68.1181 % 14.23 C
96 22-05-2014 00:00:00 20.21806 C 65.7465 % 13.61 C
97 23-05-2014 00:00:00 15.52639 C 89.6667 % 13.84 C
98 24-05-2014 00:00:00 14.72993 C 81.1514 % 11.53 C
99 25-05-2014 00:00:00 15.25071 C 74.9149 % 10.83 C
100 26-05-2014 00:00:00 16.8625 C 80.3056 % 13.45 C
Sensor: Nr:Datum:Temp:Feuchte:Taupunkt:
Aussen-T/F 101 27-05-2014 00:00:00 15.19431 C 94.7346 % 14.36 C
102 28-05-2014 00:00:00 14.58118 C 88.4000 % 12.69 C
103 29-05-2014 00:00:00 13.44653 C 87.1042 % 11.35 C
104 30-05-2014 00:00:00 13.2316 C 70.4167 % 7.97 C
105 31-05-2014 00:00:00 13.40382 C 74.2639 % 8.92 C
106 01-06-2014 00:00:00 15.49273 C 69.6545 % 9.98 C
107 02-06-2014 00:00:00 15.88943 C 67.9715 % 9.99 C
108 03-06-2014 00:00:00 15.78662 C 74.8627 % 11.34 C
109 04-06-2014 00:00:00 14.95388 C 86.4155 % 12.71 C
110 05-06-2014 00:00:00 14.55765 C 67.7687 % 8.68 C
111 06-06-2014 00:00:00 17.20312 C 67.7778 % 11.2 C
112 07-06-2014 00:00:00 20.77257 C 72.3750 % 15.62 C
113 08-06-2014 00:00:00 24.09514 C 70.7431 % 18.45 C
114 09-06-2014 00:00:00 25.74583 C 69.9583 % 19.85 C
115 10-06-2014 00:00:00 23.66632 C 70.6389 % 18.01 C
116 11-06-2014 00:00:00 20.10803 C 81.3175 % 16.81 C
117 12-06-2014 00:00:00 19.97431 C 66.4583 % 13.54 C
118 13-06-2014 00:00:00 18.37014 C 68.1597 % 12.4 C
119 14-06-2014 00:00:00 17.27465 C 65.5104 % 10.76 C
120 15-06-2014 00:00:00 16.86944 C 67.1875 % 10.75 C
121 16-06-2014 00:00:00 15.61944 C 74.7396 % 11.15 C
122 17-06-2014 00:00:00 17.41354 C 66.8819 % 11.2 C
123 18-06-2014 00:00:00 17.76319 C 71.4931 % 12.54 C
124 19-06-2014 00:00:00 15.70791 C 75.5252 % 11.4 C
125 20-06-2014 00:00:00 15.64143 C 71.1667 % 10.44 C
Sensor: Nr:Datum:Temp:Feuchte:Taupunkt:
Aussen-T/F 126 21-06-2014 00:00:00 16.62118 C 65.5903 % 10.15 C
127 22-06-2014 00:00:00 16.62782 C 66.3415 % 10.33 C
128 23-06-2014 00:00:00 17.14792 C 65.1910 % 10.56 C
129 24-06-2014 00:00:00 16.64978 C 71.6277 % 11.5 C
130 25-06-2014 00:00:00 17.29096 C 56.5426 % 8.58 C
131 26-06-2014 00:00:00 16.18958 C 64.0764 % 9.4 C
132 27-06-2014 00:00:00 17.54167 C 67.2604 % 11.41 C
133 28-06-2014 00:00:00 16.28043 C 87.3950 % 14.18 C
134 29-06-2014 00:00:00 14.67192 C 93.3251 % 13.61 C
135 30-06-2014 00:00:00 16.05247 C 75.2167 % 11.67 C
136 01-07-2014 00:00:00 15.65035 C 70.2917 % 10.26 C
137 02-07-2014 00:00:00 16.86146 C 65.5313 % 10.37 C
138 03-07-2014 00:00:00 19.78889 C 59.6493 % 11.72 C
139 04-07-2014 00:00:00 20.36076 C 67.5382 % 14.16 C
140 05-07-2014 00:00:00 20.4 C 77.3439 % 16.3 C
141 06-07-2014 00:00:00 23.48509 C 69.7818 % 17.65 C
142 07-07-2014 00:00:00 19.86367 C 64.8202 % 13.05 C
143 08-07-2014 00:00:00 15.57633 C 89.8898 % 13.92 C
144 09-07-2014 00:00:00 12.97083 C 95.1667 % 12.22 C
145 10-07-2014 00:00:00 17.68292 C 90.2000 % 16.06 C
146 11-07-2014 00:00:00 18.42369 C 88.6466 % 16.51 C
147 12-07-2014 00:00:00 18.68363 C 88.1018 % 16.67 C
148 13-07-2014 00:00:00 19.06941 C 85.5922 % 16.6 C
149 14-07-2014 00:00:00 19.60206 C 79.5021 % 15.96 C
150 15-07-2014 00:00:00 21.3216 C 70.6901 % 15.78 C
Sensor: Nr:Datum:Temp:Feuchte:Taupunkt:
Aussen-T/F 151 16-07-2014 00:00:00 21.88732 C 74.8829 % 17.23 C
152 17-07-2014 00:00:00 23.77903 C 70.2742 % 18.04 C
153 18-07-2014 00:00:00 24.87935 C 65.5097 % 17.97 C
154 19-07-2014 00:00:00 27.76989 C 58.4086 % 18.86 C
155 20-07-2014 00:00:00 22.68715 C 80.6840 % 19.19 C
156 21-07-2014 00:00:00 20.29965 C 91.0660 % 18.79 C
157 22-07-2014 00:00:00 23.6856 C 82.0494 % 20.44 C
158 23-07-2014 00:00:00 23.11788 C 73.8869 % 18.2 C
159 24-07-2014 00:00:00 20.63922 C 73.5020 % 15.74 C
160 25-07-2014 00:00:00 21.8193 C 72.9825 % 16.76 C
161 26-07-2014 00:00:00 21.92 C 74.3097 % 17.14 C
162 27-07-2014 00:00:00 19.66694 C 83.9339 % 16.88 C
163 28-07-2014 00:00:00 22.3284 C 78.8580 % 18.48 C
164 29-07-2014 00:00:00 19.88194 C 95.8125 % 19.19 C
165 30-07-2014 00:00:00 19.93194 C 85.4097 % 17.41 C
166 31-07-2014 00:00:00 20.20645 C 77.0896 % 16.06 C
167 01-08-2014 00:00:00 20.08438 C 81.7153 % 16.86 C
168 02-08-2014 00:00:00 20.10868 C 84.8264 % 17.48 C
169 03-08-2014 00:00:00 21.3566 C 81.2743 % 18.02 C
170 04-08-2014 00:00:00 19.00347 C 86.5799 % 16.71 C
171 05-08-2014 00:00:00 18.77049 C 82.0208 % 15.64 C
172 06-08-2014 00:00:00 17.59618 C 84.4201 % 14.94 C
173 07-08-2014 00:00:00 18.9934 C 85.7986 % 16.56 C
174 08-08-2014 00:00:00 18.87604 C 89.5625 % 17.12 C
175 09-08-2014 00:00:00 20.16771 C 80.6076 % 16.73 C
Sensor: Nr:Datum:Temp:Feuchte:Taupunkt:
Aussen-T/F 176 10-08-2014 00:00:00 19.0125 C 90.0208 % 17.34 C
177 11-08-2014 00:00:00 17.0066 C 81.0000 % 13.72 C
178 12-08-2014 00:00:00 17.62431 C 72.1944 % 12.56 C
179 13-08-2014 00:00:00 15.97674 C 89.6528 % 14.28 C
180 14-08-2014 00:00:00 16.15426 C 84.3298 % 13.51 C
181 15-08-2014 00:00:00 14.48638 C 92.1720 % 13.23 C
182 16-08-2014 00:00:00 15.13439 C 89.3930 % 13.4 C
183 17-08-2014 00:00:00 16.14062 C 77.5243 % 12.21 C
184 18-08-2014 00:00:00 16.30417 C 74.5313 % 11.77 C
185 19-08-2014 00:00:00 13.79653 C 83.4410 % 11.04 C
186 20-08-2014 00:00:00 12.68681 C 83.0799 % 9.89 C
187 21-08-2014 00:00:00 12.84653 C 82.9965 % 10.03 C
188 22-08-2014 00:00:00 14.04062 C 78.5000 % 10.36 C
189 23-08-2014 00:00:00 14.26875 C 83.3194 % 11.48 C
190 24-08-2014 00:00:00 11.58993 C 93.2465 % 10.54 C
191 25-08-2014 00:00:00 13.23854 C 93.7743 % 12.26 C
192 26-08-2014 00:00:00 14.79479 C 96.8681 % 14.3 C
193 27-08-2014 00:00:00 15.38741 C 91.3237 % 13.98 C
194 28-08-2014 00:00:00 15.84062 C 93.0556 % 14.72 C
195 29-08-2014 00:00:00 18.05278 C 88.6979 % 16.16 C
196 30-08-2014 00:00:00 16.23299 C 90.9965 % 14.76 C
197 31-08-2014 00:00:00 14.70069 C 92.8125 % 13.55 C
198 01-09-2014 00:00:00 14.60556 C 91.4896 % 13.24 C
199 02-09-2014 00:00:00 14.6191 C 90.6771 % 13.11 C
200 03-09-2014 00:00:00 15.03299 C 89.9549 % 13.4 C
Sensor: Nr:Datum:Temp:Feuchte:Taupunkt:
Aussen-T/F 201 04-09-2014 00:00:00 16.74028 C 89.6910 % 15.04 C
202 05-09-2014 00:00:00 18.15903 C 91.3819 % 16.73 C
203 06-09-2014 00:00:00 17.4559 C 92.7604 % 16.27 C
204 07-09-2014 00:00:00 18.08889 C 88.1264 % 16.09 C
205 08-09-2014 00:00:00 17.83403 C 84.0833 % 15.11 C
206 09-09-2014 00:00:00 15.64965 C 81.4410 % 12.48 C
207 10-09-2014 00:00:00 14.27882 C 83.4132 % 11.51 C
208 11-09-2014 00:00:00 14.96111 C 83.0903 % 12.12 C
209 12-09-2014 00:00:00 14.12153 C 84.7257 % 11.59 C
210 13-09-2014 00:00:00 16.12118 C 88.7743 % 14.27 C
211 14-09-2014 00:00:00 16.65196 C 88.0641 % 14.67 C
212 15-09-2014 00:00:00 16.079 C 91.5516 % 14.7 C
213 16-09-2014 00:00:00 16.93264 C 90.1458 % 15.31 C
214 17-09-2014 00:00:00 16.05139 C 92.2118 % 14.79 C
215 18-09-2014 00:00:00 17.4875 C 95.6215 % 16.78 C
216 19-09-2014 00:00:00 18.38993 C 95.2708 % 17.62 C
217 20-09-2014 00:00:00 17.14931 C 96.4583 % 16.58 C
218 21-09-2014 00:00:00 15.46146 C 95.3090 % 14.71 C
219 22-09-2014 00:00:00 12.53194 C 86.3194 % 10.31 C
220 23-09-2014 00:00:00 9.91146 C 90.8993 % 8.5 C
221 24-09-2014 00:00:00 11.10451 C 89.8056 % 9.5 C
222 25-09-2014 00:00:00 13.67917 C 85.6806 % 11.33 C
223 26-09-2014 00:00:00 14.24896 C 88.9653 % 12.46 C
224 27-09-2014 00:00:00 15.59965 C 91.2743 % 14.18 C
225 28-09-2014 00:00:00 14.22743 C 95.0660 % 13.45 C
Sensor: Nr:Datum:Temp:Feuchte:Taupunkt:
Aussen-T/F 226 29-09-2014 00:00:00 15.41493 C 94.8472 % 14.59 C
227 30-09-2014 00:00:00 16.83438 C 93.1875 % 15.73 C
228 01-10-2014 00:00:00 15.87778 C 94.6389 % 15.02 C
229 02-10-2014 00:00:00 14.35799 C 95.7326 % 13.69 C
230 03-10-2014 00:00:00 13.73785 C 95.4063 % 13.02 C
231 04-10-2014 00:00:00 12.86979 C 93.2014 % 11.8 C
232 05-10-2014 00:00:00 12.94097 C 94.0799 % 12.01 C
233 06-10-2014 00:00:00 14.3 C 90.3750 % 12.75 C
234 07-10-2014 00:00:00 13.71806 C 92.2986 % 12.49 C
235 08-10-2014 00:00:00 13.3 C 97.6069 % 12.93 C
236 09-10-2014 00:00:00 15.17173 C 97.6859 % 14.81 C
237 10-10-2014 00:00:00 14.20902 C 96.4000 % 13.64 C
238 11-10-2014 00:00:00 14.77847 C 96.0347 % 14.15 C
239 12-10-2014 00:00:00 12.52744 C 95.6029 % 11.84 C
240 13-10-2014 00:00:00 14.72014 C 96.7569 % 14.21 C
241 14-10-2014 00:00:00 12.54495 C 95.1847 % 11.8 C
242 15-10-2014 00:00:00 11.65639 C 95.3910 % 10.94 C
243 16-10-2014 00:00:00 14.02682 C 94.9818 % 13.24 C
244 17-10-2014 00:00:00 14.05977 C 93.7854 % 13.07 C
245 18-10-2014 00:00:00 12.49887 C 97.7283 % 12.15 C
246 19-10-2014 00:00:00 15.09722 C 92.7188 % 13.93 C
247 20-10-2014 00:00:00 15.06015 C 83.9885 % 12.38 C
248 21-10-2014 00:00:00 11.78491 C 85.1649 % 9.38 C
249 22-10-2014 00:00:00 8.88438 C 85.2674 % 6.55 C
250 23-10-2014 00:00:00 10.3816 C 87.9444 % 8.47 C
Sensor: Nr:Datum:Temp:Feuchte:Taupunkt:
Aussen-T/F 251 24-10-2014 00:00:00 10.59097 C 90.2951 % 9.07 C
252 25-10-2014 00:00:00 11.53056 C 94.5417 % 10.69 C
253 26-10-2014 00:00:00 11.35625 C 95.5278 % 10.67 C
254 27-10-2014 00:00:00 9.22813 C 96.0903 % 8.64 C
255 28-10-2014 00:00:00 7.93681 C 88.3750 % 6.14 C
256 29-10-2014 00:00:00 9.50556 C 91.5347 % 8.2 C
257 30-10-2014 00:00:00 12.10625 C 96.8819 % 11.63 C
258 31-10-2014 00:00:00 12.05903 C 97.0694 % 11.61 C
259 01-11-2014 00:00:00 10.92674 C 98.2674 % 10.66 C
260 02-11-2014 00:00:00 11.24448 C 97.2776 % 10.83 C
261 03-11-2014 00:00:00 13.84028 C 90.1806 % 12.26 C
262 04-11-2014 00:00:00 11.22049 C 96.5521 % 10.69 C
263 05-11-2014 00:00:00 9.33229 C 95.2257 % 8.61 C
264 06-11-2014 00:00:00 6.59514 C 92.6250 % 5.49 C
265 07-11-2014 00:00:00 5.60208 C 94.8160 % 4.84 C
266 08-11-2014 00:00:00 8.8941 C 91.4340 % 7.58 C
267 09-11-2014 00:00:00 6.62257 C 96.8125 % 6.15 C
268 10-11-2014 00:00:00 8.76389 C 96.3715 % 8.22 C
269 11-11-2014 00:00:00 8.47553 C 95.0106 % 7.72 C
270 12-11-2014 00:00:00 9.50104 C 95.2604 % 8.78 C
271 13-11-2014 00:00:00 9.66736 C 96.6806 % 9.17 C
272 14-11-2014 00:00:00 10.60174 C 90.0313 % 9.04 C
273 15-11-2014 00:00:00 9.75938 C 94.5347 % 8.93 C
274 16-11-2014 00:00:00 8.75674 C 97.4468 % 8.38 C
275 17-11-2014 00:00:00 8.71146 C 97.5799 % 8.35 C
Sensor: Nr:Datum:Temp:Feuchte:Taupunkt:
Aussen-T/F 276 18-11-2014 00:00:00 8.62491 C 96.7473 % 8.14 C
277 19-11-2014 00:00:00 8.07465 C 95.9514 % 7.47 C
278 20-11-2014 00:00:00 6.45486 C 94.4826 % 5.63 C
279 21-11-2014 00:00:00 5.36458 C 95.0799 % 4.64 C
280 22-11-2014 00:00:00 5.83576 C 95.7569 % 5.21 C
281 23-11-2014 00:00:00 6.30104 C 96.9931 % 5.86 C
282 24-11-2014 00:00:00 7.36679 C 94.6236 % 6.56 C
283 25-11-2014 00:00:00 3.04781 C 97.7769 % 2.73 C
284 26-11-2014 00:00:00 5.29848 C 89.8182 % 3.77 C
285 27-11-2014 00:00:00 5.85447 C 92.9300 % 4.8 C
286 28-11-2014 00:00:00 5.42203 C 91.8771 % 4.21 C
287 29-11-2014 00:00:00 4.46596 C 89.4070 % 2.88 C
288 30-11-2014 00:00:00 3.88993 C 91.8229 % 2.69 C
289 01-12-2014 00:00:00 3.33299 C 91.1840 % 2.04 C
290 02-12-2014 00:00:00 1.63731 C 91.3192 % 0.38 C
291 03-12-2014 00:00:00 1.74095 C 94.0216 % 0.88 C
292 04-12-2014 00:00:00 2.32917 C 92.6806 % 1.27 C
293 05-12-2014 00:00:00 4.15278 C 92.7500 % 3.09 C
294 06-12-2014 00:00:00 4.51389 C 95.0174 % 3.79 C
295 07-12-2014 00:00:00 4.32049 C 92.1597 % 3.16 C
296 08-12-2014 00:00:00 3.10625 C 93.1458 % 2.11 C
297 09-12-2014 00:00:00 2.57569 C 96.3472 % 2.05 C
298 10-12-2014 00:00:00 4.42118 C 89.8993 % 2.91 C
299 11-12-2014 00:00:00 6.26736 C 89.8125 % 4.72 C
300 12-12-2014 00:00:00 9.07951 C 85.8507 % 6.84 C
Sensor: Nr:Datum:Temp:Feuchte:Taupunkt:
Aussen-T/F 301 13-12-2014 00:00:00 4.45625 C 96.4618 % 3.94 C
302 14-12-2014 00:00:00 2.59063 C 96.5868 % 2.1 C
303 15-12-2014 00:00:00 3.42986 C 93.8646 % 2.54 C
304 16-12-2014 00:00:00 6.12049 C 91.8542 % 4.9 C
305 17-12-2014 00:00:00 6.08021 C 92.4167 % 4.95 C
306 18-12-2014 00:00:00 11.91597 C 90.3021 % 10.38 C
307 19-12-2014 00:00:00 10.45243 C 86.8194 % 8.35 C
308 20-12-2014 00:00:00 5.90764 C 85.4618 % 3.66 C
309 21-12-2014 00:00:00 6.41042 C 88.0833 % 4.59 C
310 22-12-2014 00:00:00 8.375 C 87.5139 % 6.43 C
311 23-12-2014 00:00:00 10.04444 C 85.6222 % 7.75 C
312 24-12-2014 00:00:00 8.3214 C 86.1158 % 6.14 C
313 25-12-2014 00:00:00 5.2875 C 85.6027 % 3.08 C
314 26-12-2014 00:00:00 2.31469 C 97.1259 % 1.91 C
315 27-12-2014 00:00:00 1.46649 C 94.8796 % 0.74 C
316 28-12-2014 00:00:00 -3.09591 C 79.8636 % -6.07 C
317 29-12-2014 00:00:00 -0.46157 C 89.7388 % -1.94 C
318 30-12-2014 00:00:00 2.6765 C 92.5574 % 1.59 C
319 31-12-2014 00:00:00 2.46053 C 93.8487 % 1.57 C
320 01-01-2015 00:00:00 1.89397 C 96.4741 % 1.39 C
321 02-01-2015 00:00:00 3.6411 C 89.1575 % 2.03 C
322 03-01-2015 00:00:00 1.94125 C 94.7000 % 1.18 C
323 04-01-2015 00:00:00 2.94172 C 93.6503 % 2.02 C
324 05-01-2015 00:00:00 -0.02447 C 95.0904 % -0.71 C
325 06-01-2015 00:00:00 0.48846 C 92.6923 % -0.55 C
Sensor: Nr:Datum:Temp:Feuchte:Taupunkt:
Aussen-T/F 326 07-01-2015 00:00:00 2.52604 C 92.4113 % 1.42 C
327 08-01-2015 00:00:00 6.62222 C 92.6632 % 5.52 C
328 09-01-2015 00:00:00 9.27879 C 85.8977 % 7.04 C
329 10-01-2015 00:00:00 13.56872 C 83.0051 % 10.74 C
330 11-01-2015 00:00:00 5.45068 C 76.2432 % 1.61 C
331 12-01-2015 00:00:00 6.91962 C 83.3811 % 4.3 C
332 13-01-2015 00:00:00 10.09231 C 75.4163 % 5.95 C
333 14-01-2015 00:00:00 5.9911 C 84.6525 % 3.61 C
334 15-01-2015 00:00:00 10.14352 C 76.1574 % 6.14 C
335 16-01-2015 00:00:00 6.66424 C 88.4201 % 4.89 C
336 17-01-2015 00:00:00 3.35174 C 91.5660 % 2.11 C
337 18-01-2015 00:00:00 1.91111 C 84.4965 % -0.42 C
338 19-01-2015 00:00:00 0.89028 C 89.3889 % -0.65 C
339 20-01-2015 00:00:00 0.86285 C 90.8576 % -0.46 C
340 21-01-2015 00:00:00 -0.0414 C 88.7123 % -1.68 C
341 22-01-2015 00:00:00 1.45625 C 84.8438 % -0.81 C
342 23-01-2015 00:00:00 1.33299 C 89.6736 % -0.17 C
343 24-01-2015 00:00:00 1.04056 C 91.7189 % -0.15 C
344 25-01-2015 00:00:00 2.19444 C 94.2396 % 1.37 C
345 26-01-2015 00:00:00 3.05694 C 95.0069 % 2.34 C
346 27-01-2015 00:00:00 3.85208 C 93.6806 % 2.93 C
347 28-01-2015 00:00:00 4.1184 C 90.7604 % 2.75 C
348 29-01-2015 00:00:00 3.03715 C 88.2431 % 1.29 C
349 30-01-2015 00:00:00 1.92569 C 90.3715 % 0.52 C
350 31-01-2015 00:00:00 2.07143 C 87.5437 % 0.23 C
Sensor: Nr:Datum:Temp:Feuchte:Taupunkt:
Aussen-T/F 351 01-02-2015 00:00:00 2.04274 C 93.0565 % 1.04 C
352 02-02-2015 00:00:00 2.35794 C 89.0635 % 0.75 C
353 03-02-2015 00:00:00 0.88769 C 90.6462 % -0.46 C
354 04-02-2015 00:00:00 0.04848 C 87.0379 % -1.84 C
355 05-02-2015 00:00:00 -1.86778 C 83.7333 % -4.25 C
356 06-02-2015 00:00:00 0.42153 C 69.7431 % -4.45 C
357 07-02-2015 00:00:00 -0.6316 C 80.7569 % -3.52 C
358 08-02-2015 00:00:00 3.19444 C 81.6701 % 0.37 C
359 09-02-2015 00:00:00 4.06597 C 90.9549 % 2.73 C
360 10-02-2015 00:00:00 4.96528 C 91.7188 % 3.73 C
361 11-02-2015 00:00:00 3.82917 C 87.1771 % 1.9 C
362 12-02-2015 00:00:00 2.75556 C 89.3854 % 1.19 C
363 13-02-2015 00:00:00 2.27396 C 89.2326 % 0.69 C
364 14-02-2015 00:00:00 3.73438 C 86.5382 % 1.7 C
365 15-02-2015 00:00:00 1.72778 C 89.3542 % 0.17 C
366 16-02-2015 00:00:00 1.82744 C 88.4874 % 0.13 C
367 17-02-2015 00:00:00 3.31146 C 88.3646 % 1.58 C
368 18-02-2015 00:00:00 4.09479 C 89.1493 % 2.47 C
369 19-02-2015 00:00:00 0.94861 C 88.1007 % -0.79 C
370 20-02-2015 00:00:00 6.96389 C 77.7326 % 3.35 C
371 21-02-2015 00:00:00 5.27535 C 85.5972 % 3.06 C
372 22-02-2015 00:00:00 3.72083 C 82.6285 % 1.05 C
373 23-02-2015 00:00:00 3.46944 C 89.0000 % 1.83 C
374 24-02-2015 00:00:00 4.88611 C 84.9757 % 2.58 C
375 25-02-2015 00:00:00 4.28403 C 89.1215 % 2.65 C
Sensor: Nr:Datum:Temp:Feuchte:Taupunkt:
Aussen-T/F 376 26-02-2015 00:00:00 6.06354 C 89.7708 % 4.51 C
377 27-02-2015 00:00:00 5.01736 C 91.6632 % 3.78 C
378 28-02-2015 00:00:00 2.37187 C 85.8854 % 0.26 C
379 01-03-2015 00:00:00 7.71493 C 80.8125 % 4.63 C
380 02-03-2015 00:00:00 6.14653 C 79.5556 % 2.88 C
381 03-03-2015 00:00:00 5.52812 C 78.2778 % 2.05 C
382 04-03-2015 00:00:00 4.51771 C 82.8576 % 1.86 C
383 05-03-2015 00:00:00 5.08681 C 83.0556 % 2.45 C
384 06-03-2015 00:00:00 4.14931 C 84.0660 % 1.71 C
385 07-03-2015 00:00:00 4.96007 C 81.3993 % 2.05 C
386 08-03-2015 00:00:00 6.05625 C 83.0174 % 3.4 C
387 09-03-2015 00:00:00 7.81354 C 84.5938 % 5.38 C
388 10-03-2015 00:00:00 5.56319 C 96.8542 % 5.1 C
389 11-03-2015 00:00:00 4.39549 C 87.3090 % 2.48 C
390 12-03-2015 00:00:00 3.92222 C 82.5382 % 1.23 C
391 13-03-2015 00:00:00 4.14514 C 76.4688 % 0.39 C
392 14-03-2015 00:00:00 4.55451 C 82.5729 % 1.85 C
393 15-03-2015 00:00:00 4.61042 C 89.4132 % 3.02 C
394 16-03-2015 00:00:00 4.68368 C 86.6736 % 2.66 C
395 17-03-2015 00:00:00 7.26632 C 81.9722 % 4.4 C
396 18-03-2015 00:00:00 9.08924 C 80.6424 % 5.94 C
397 19-03-2015 00:00:00 7.62431 C 91.9132 % 6.4 C
398 20-03-2015 00:00:00 8.07465 C 82.3889 % 5.26 C
399 21-03-2015 00:00:00 5.69201 C 90.0000 % 4.18 C
400 22-03-2015 00:00:00 5.19792 C 82.4965 % 2.47 C
Sensor: Nr:Datum:Temp:Feuchte:Taupunkt:
Aussen-T/F 401 23-03-2015 00:00:00 3.85521 C 84.2118 % 1.44 C
402 24-03-2015 00:00:00 6.94167 C 81.1181 % 3.93 C
403 25-03-2015 00:00:00 7.68056 C 84.0729 % 5.17 C
404 26-03-2015 00:00:00 7.17257 C 77.3333 % 3.48 C
405 27-03-2015 00:00:00 7.64965 C 74.8472 % 3.48 C
406 28-03-2015 00:00:00 8.51667 C 79.0243 % 5.09 C
407 29-03-2015 00:00:00 11.63659 C 83.7029 % 8.98 C
408 30-03-2015 00:00:00 8.21597 C 71.2222 % 3.32 C
409 31-03-2015 00:00:00 10.06181 C 74.1771 % 5.68 C
410 01-04-2015 00:00:00 6.38924 C 70.3542 % 1.4 C
411 02-04-2015 00:00:00 6.45868 C 73.6250 % 2.1 C
412 03-04-2015 00:00:00 5.87951 C 71.3819 % 1.11 C
413 04-04-2015 00:00:00 6.24896 C 76.7882 % 2.49 C
414 05-04-2015 00:00:00 5.21354 C 69.6042 % 0.12 C
415 06-04-2015 00:00:00 5.33542 C 76.9201 % 1.62 C
416 07-04-2015 00:00:00 5.98646 C 76.3785 % 2.16 C
417 08-04-2015 00:00:00 8.43776 C 77.5594 % 4.75 C
418 09-04-2015 00:00:00 11.19653 C 77.2118 % 7.36 C
419 10-04-2015 00:00:00 13.22708 C 68.0278 % 7.46 C
420 11-04-2015 00:00:00 12.37118 C 70.6736 % 7.2 C
421 12-04-2015 00:00:00 11.34444 C 70.3090 % 6.14 C
422 13-04-2015 00:00:00 11.50104 C 69.8576 % 6.2 C
423 14-04-2015 00:00:00 13.37778 C 67.0347 % 7.39 C
424 15-04-2015 00:00:00 16.43472 C 63.5799 % 9.51 C
425 16-04-2015 00:00:00 15.04757 C 69.6493 % 9.55 C
Sensor: Nr:Datum:Temp:Feuchte:Taupunkt:
Aussen-T/F 426 17-04-2015 00:00:00 11.41736 C 67.7951 % 5.69 C
427 18-04-2015 00:00:00 8.60486 C 64.9931 % 2.41 C
428 19-04-2015 00:00:00 9.50903 C 62.7708 % 2.78 C
429 20-04-2015 00:00:00 12.20312 C 60.9549 % 4.9 C
430 21-04-2015 00:00:00 13.69549 C 60.5278 % 6.21 C
431 22-04-2015 00:00:00 10.77465 C 69.4826 % 5.42 C
432 23-04-2015 00:00:00 10.84062 C 70.1806 % 5.63 C
433 24-04-2015 00:00:00 13.43403 C 62.6701 % 6.46 C
434 25-04-2015 00:00:00 12.95486 C 81.1250 % 9.8 C
435 26-04-2015 00:00:00 15.34444 C 79.1736 % 11.76 C
436 27-04-2015 00:00:00 10.42014 C 94.5868 % 9.59 C
437 28-04-2015 00:00:00 9.15382 C 73.6910 % 4.71 C
438 29-04-2015 00:00:00 8.3059 C 73.2951 % 3.82 C
439 30-04-2015 00:00:00 9.85764 C 80.8819 % 6.73 C
440 01-05-2015 00:00:00 8.17979 C 82.7700 % 5.43 C
441 02-05-2015 00:00:00 9.88958 C 78.1007 % 6.26 C
442 03-05-2015 00:00:00 13.80469 C 89.9856 % 12.19 C
443 04-05-2015 00:00:00 16.61875 C 81.1319 % 13.37 C
444 05-05-2015 00:00:00 18.45035 C 74.4514 % 13.83 C
445 06-05-2015 00:00:00 13.3566 C 69.4306 % 7.89 C
446 07-05-2015 00:00:00 13.35764 C 65.8646 % 7.12 C
447 08-05-2015 00:00:00 14.46632 C 68.7951 % 8.81 C
448 09-05-2015 00:00:00 15.2441 C 75.9410 % 11.03 C
449 10-05-2015 00:00:00 14.78229 C 75.1944 % 10.44 C
450 11-05-2015 00:00:00 17.12812 C 73.8611 % 12.43 C
Sensor: Nr:Datum:Temp:Feuchte:Taupunkt:
Aussen-T/F 451 12-05-2015 00:00:00 18.0309 C 74.6181 % 13.46 C
452 13-05-2015 00:00:00 14.45208 C 67.5590 % 8.53 C
453 14-05-2015 00:00:00 14.14351 C 72.7298 % 9.33 C
454 15-05-2015 00:00:00 15.02882 C 77.6215 % 11.15 C
455 16-05-2015 00:00:00 12.01528 C 78.7569 % 8.45 C
456 17-05-2015 00:00:00 14.18924 C 70.3750 % 8.88 C
457 18-05-2015 00:00:00 15.27535 C 65.6250 % 8.88 C
458 19-05-2015 00:00:00 13.64941 C 60.6403 % 6.19 C
459 20-05-2015 00:00:00 11.71144 C 70.5166 % 6.54 C
460 21-05-2015 00:00:00 11.60764 C 69.7118 % 6.27 C
461 22-05-2015 00:00:00 15.74722 C 61.0868 % 8.27 C
462 23-05-2015 00:00:00 15.85278 C 71.0625 % 10.62 C
463 24-05-2015 00:00:00 17.02887 C 75.7852 % 12.73 C
464 25-05-2015 00:00:00 13.82968 C 88.0452 % 11.89 C
465 26-05-2015 00:00:00 11.87604 C 75.6736 % 7.72 C
466 27-05-2015 00:00:00 11.63958 C 70.3194 % 6.43 C
467 28-05-2015 00:00:00 14.21944 C 69.5104 % 8.73 C
468 29-05-2015 00:00:00 13.27367 C 76.0712 % 9.15 C
469 30-05-2015 00:00:00 12.66319 C 71.2188 % 7.59 C
470 31-05-2015 00:00:00 14.50903 C 73.4653 % 9.83 C
471 01-06-2015 00:00:00 14.86667 C 79.3472 % 11.33 C
472 02-06-2015 00:00:00 16.57639 C 73.3056 % 11.78 C
473 03-06-2015 00:00:00 17.74965 C 70.8646 % 12.4 C
474 04-06-2015 00:00:00 18.54896 C 65.3993 % 11.94 C
475 05-06-2015 00:00:00 22.1191 C 67.8681 % 15.91 C
Sensor: Nr:Datum:Temp:Feuchte:Taupunkt:
Aussen-T/F 476 06-06-2015 00:00:00 19.94028 C 80.0208 % 16.39 C
477 07-06-2015 00:00:00 18.04306 C 59.8576 % 10.13 C
478 08-06-2015 00:00:00 16.17222 C 63.8056 % 9.32 C
479 09-06-2015 00:00:00 14.94792 C 62.4688 % 7.85 C
480 10-06-2015 00:00:00 17.10208 C 66.1146 % 10.73 C
481 11-06-2015 00:00:00 19.95895 C 61.7825 % 12.41 C
482 12-06-2015 00:00:00 19.48699 C 78.0855 % 15.57 C
483 13-06-2015 00:00:00 18.63958 C 85.4028 % 16.14 C
484 14-06-2015 00:00:00 19.07708 C 68.7674 % 13.21 C
485 15-06-2015 00:00:00 17.59271 C 74.7535 % 13.06 C
486 16-06-2015 00:00:00 15.68924 C 63.0868 % 8.69 C
487 17-06-2015 00:00:00 15.5816 C 65.6250 % 9.18 C
488 18-06-2015 00:00:00 17.15625 C 75.1736 % 12.73 C
489 19-06-2015 00:00:00 12.7559 C 82.5104 % 9.86 C
490 20-06-2015 00:00:00 13.05547 C 82.0000 % 10.06 C
491 21-06-2015 00:00:00 15.43396 C 84.8358 % 12.9 C
492 22-06-2015 00:00:00 13.19855 C 87.9273 % 11.24 C
493 23-06-2015 00:00:00 11.71206 C 92.2057 % 10.49 C
494 24-06-2015 00:00:00 14.96215 C 81.0417 % 11.74 C
495 25-06-2015 00:00:00 17.94306 C 75.7118 % 13.6 C
496 26-06-2015 00:00:00 19.40139 C 78.2465 % 15.52 C
497 27-06-2015 00:00:00 20.26461 C 74.9877 % 15.69 C
498 28-06-2015 00:00:00 18.39741 C 72.8405 % 13.44 C
499 29-06-2015 00:00:00 23.63875 C 61.7438 % 15.87 C
500 30-06-2015 00:00:00 21.94847 C 63.2710 % 14.65 C
Sensor: Nr:Datum:Temp:Feuchte:Taupunkt:
Aussen-T/F 501 01-07-2015 00:00:00 24.13993 C 63.3022 % 16.73 C
502 02-07-2015 00:00:00 26.83474 C 64.8246 % 19.66 C
503 03-07-2015 00:00:00 28.2408 C 65.4400 % 21.14 C
504 04-07-2015 00:00:00 27.77951 C 67.8229 % 21.29 C
505 05-07-2015 00:00:00 26.75417 C 64.4028 % 19.47 C
506 06-07-2015 00:00:00 23.89674 C 54.1630 % 14.07 C
507 07-07-2015 00:00:00 23.4251 C 64.1833 % 16.27 C
508 08-07-2015 00:00:00 17.62465 C 71.6944 % 12.45 C
509 09-07-2015 00:00:00 16.50669 C 68.3134 % 10.65 C
510 10-07-2015 00:00:00 17.02947 C 57.6175 % 8.61 C
511 11-07-2015 00:00:00 21.24132 C 54.9340 % 11.83 C
512 12-07-2015 00:00:00 19.0157 C 71.3264 % 13.71 C
513 13-07-2015 00:00:00 17.93777 C 85.0638 % 15.39 C
514 14-07-2015 00:00:00 21.06476 C 74.5551 % 16.37 C
515 15-07-2015 00:00:00 21.59368 C 75.8000 % 17.14 C
516 16-07-2015 00:00:00 24.00382 C 71.6667 % 18.57 C
517 17-07-2015 00:00:00 28.34301 C 50.2206 % 16.99 C
518 18-07-2015 00:00:00 23.63602 C 62.5441 % 16.06 C
519 19-07-2015 00:00:00 21.84756 C 77.9451 % 17.83 C
520 20-07-2015 00:00:00 22.02667 C 88.1833 % 19.98 C
521 21-07-2015 00:00:00 26.21048 C 69.2476 % 20.13 C
522 22-07-2015 00:00:00 23.3275 C 74.4857 % 18.53 C
523 23-07-2015 00:00:00 20.60312 C 64.9514 % 13.78 C
524 24-07-2015 00:00:00 21.45543 C 69.6180 % 15.67 C
525 25-07-2015 00:00:00 17.38849 C 77.9048 % 13.5 C
Sensor: Nr:Datum:Temp:Feuchte:Taupunkt:
Aussen-T/F 526 26-07-2015 00:00:00 15.82244 C 71.9961 % 10.79 C
527 27-07-2015 00:00:00 17.63472 C 81.2604 % 14.39 C
528 28-07-2015 00:00:00 17.16294 C 63.9825 % 10.3 C
529 29-07-2015 00:00:00 17.78846 C 55.9808 % 8.9 C
530 30-07-2015 00:00:00 14.2708 C 74.1720 % 9.74 C
531 31-07-2015 00:00:00 16.9314 C 65.0744 % 10.33 C
532 01-08-2015 00:00:00 19.24097 C 59.1319 % 11.07 C
533 02-08-2015 00:00:00 20.84722 C 61.6979 % 13.23 C
534 03-08-2015 00:00:00 23.19217 C 57.6157 % 14.37 C
535 04-08-2015 00:00:00 19.03299 C 81.7396 % 15.84 C
536 05-08-2015 00:00:00 19.79201 C 76.1424 % 15.47 C
537 06-08-2015 00:00:00 24 C 66.2153 % 17.31 C
538 07-08-2015 00:00:00 26.94306 C 61.3715 % 18.88 C
539 08-08-2015 00:00:00 22.82014 C 79.2431 % 19.03 C
540 09-08-2015 00:00:00 21.98785 C 77.7708 % 17.93 C
541 10-08-2015 00:00:00 19.76944 C 83.2465 % 16.85 C
542 11-08-2015 00:00:00 21.91979 C 74.4583 % 17.17 C
543 12-08-2015 00:00:00 23.09896 C 77.4583 % 18.94 C
544 13-08-2015 00:00:00 25.32292 C 70.7535 % 19.63 C
545 14-08-2015 00:00:00 24.17396 C 69.3611 % 18.21 C
546 15-08-2015 00:00:00 20.86319 C 72.4201 % 15.72 C
547 16-08-2015 00:00:00 15.85799 C 89.8924 % 14.2 C
548 17-08-2015 00:00:00 14.78889 C 90.7396 % 13.29 C
549 18-08-2015 00:00:00 15.90625 C 82.9757 % 13.02 C
550 19-08-2015 00:00:00 15.71493 C 78.1458 % 11.92 C
Sensor: Nr:Datum:Temp:Feuchte:Taupunkt:
Aussen-T/F 551 20-08-2015 00:00:00 18.10382 C 74.0625 % 13.41 C
552 21-08-2015 00:00:00 18.85764 C 70.1910 % 13.31 C
553 22-08-2015 00:00:00 19.10729 C 64.2708 % 12.21 C
554 23-08-2015 00:00:00 19.89722 C 63.7431 % 12.83 C
555 24-08-2015 00:00:00 19.22187 C 83.3750 % 16.34 C
556 25-08-2015 00:00:00 17.40729 C 68.3472 % 11.52 C
557 26-08-2015 00:00:00 20.71458 C 65.1667 % 13.94 C
558 27-08-2015 00:00:00 18.60486 C 83.2986 % 15.72 C
559 28-08-2015 00:00:00 16.57292 C 89.2813 % 14.8 C
560 29-08-2015 00:00:00 19.31181 C 88.3993 % 17.35 C
561 30-08-2015 00:00:00 23.12396 C 82.7396 % 20.03 C
562 31-08-2015 00:00:00 24.2934 C 69.7604 % 18.42 C
563 01-09-2015 00:00:00 17.4059 C 90.9826 % 15.92 C
564 02-09-2015 00:00:00 15.13229 C 84.9479 % 12.62 C
565 03-09-2015 00:00:00 13.95937 C 84.7326 % 11.43 C
566 04-09-2015 00:00:00 13.54792 C 79.5833 % 10.09 C
567 05-09-2015 00:00:00 13.21701 C 84.4479 % 10.65 C
568 06-09-2015 00:00:00 13.11632 C 74.0868 % 8.61 C
569 07-09-2015 00:00:00 13.56493 C 87.0000 % 11.44 C
570 08-09-2015 00:00:00 15.09236 C 84.9271 % 12.58 C
571 09-09-2015 00:00:00 15.60139 C 76.2118 % 11.43 C
572 10-09-2015 00:00:00 13.23854 C 76.5972 % 9.22 C
573 11-09-2015 00:00:00 13.19792 C 79.2847 % 9.69 C
574 12-09-2015 00:00:00 15.35312 C 83.7361 % 12.62 C
575 13-09-2015 00:00:00 17.07153 C 92.6042 % 15.86 C
Sensor: Nr:Datum:Temp:Feuchte:Taupunkt:
Aussen-T/F 576 14-09-2015 00:00:00 15.52639 C 91.7431 % 14.19 C
577 15-09-2015 00:00:00 12.94931 C 87.0938 % 10.86 C
578 16-09-2015 00:00:00 15.01667 C 93.7153 % 14.01 C
579 17-09-2015 00:00:00 14.6566 C 91.2049 % 13.24 C
580 18-09-2015 00:00:00 14.53542 C 85.5278 % 12.14 C
581 19-09-2015 00:00:00 14.32292 C 87.2118 % 12.23 C
582 20-09-2015 00:00:00 13.77188 C 84.7743 % 11.26 C
583 21-09-2015 00:00:00 12.22847 C 90.1354 % 10.66 C
584 22-09-2015 00:00:00 13.06701 C 91.6285 % 11.74 C
585 23-09-2015 00:00:00 11.92535 C 93.3056 % 10.88 C
586 24-09-2015 00:00:00 13.09618 C 90.9340 % 11.65 C
587 25-09-2015 00:00:00 13.95278 C 87.2257 % 11.86 C
588 26-09-2015 00:00:00 12.73889 C 89.2049 % 11.01 C
589 27-09-2015 00:00:00 11.29236 C 83.7500 % 8.65 C
590 28-09-2015 00:00:00 10.50729 C 82.5556 % 7.67 C
591 29-09-2015 00:00:00 10.96979 C 81.2257 % 7.88 C
592 30-09-2015 00:00:00 10.73368 C 77.8993 % 7.04 C
593 01-10-2015 00:00:00 9.88646 C 74.8576 % 5.64 C
594 02-10-2015 00:00:00 9.21528 C 85.2083 % 6.86 C
595 03-10-2015 00:00:00 11.40139 C 85.8993 % 9.13 C
596 04-10-2015 00:00:00 12.61562 C 91.5000 % 11.27 C
597 05-10-2015 00:00:00 11.96597 C 92.3958 % 10.77 C
598 06-10-2015 00:00:00 15.93854 C 95.3576 % 15.2 C
599 07-10-2015 00:00:00 14.99028 C 89.4375 % 13.27 C
600 08-10-2015 00:00:00 13.45521 C 86.9167 % 11.32 C
Sensor: Nr:Datum:Temp:Feuchte:Taupunkt:
Aussen-T/F 601 09-10-2015 00:00:00 12.29618 C 93.3993 % 11.26 C
602 10-10-2015 00:00:00 12.19271 C 87.9236 % 10.25 C
603 11-10-2015 00:00:00 8.37431 C 76.8542 % 4.56 C
604 12-10-2015 00:00:00 5.28229 C 82.6007 % 2.57 C
605 13-10-2015 00:00:00 4.33542 C 90.2049 % 2.88 C
606 14-10-2015 00:00:00 3.63333 C 95.0139 % 2.91 C
607 15-10-2015 00:00:00 4.25694 C 95.2500 % 3.57 C
608 16-10-2015 00:00:00 6.52431 C 92.4236 % 5.39 C
609 17-10-2015 00:00:00 6.99375 C 89.5000 % 5.39 C
610 18-10-2015 00:00:00 7.25556 C 90.9896 % 5.89 C
611 19-10-2015 00:00:00 8.22361 C 91.6285 % 6.94 C
612 20-10-2015 00:00:00 9.33576 C 93.8785 % 8.4 C
613 21-10-2015 00:00:00 9.83611 C 91.5903 % 8.53 C
614 22-10-2015 00:00:00 11.18472 C 88.5000 % 9.36 C
615 23-10-2015 00:00:00 10.26979 C 95.0417 % 9.51 C
616 24-10-2015 00:00:00 11.03438 C 89.7465 % 9.42 C
617 25-10-2015 00:00:00 11.68229 C 92.6528 % 10.53 C
618 26-10-2015 00:00:00 9.55312 C 94.6736 % 8.74 C
619 27-10-2015 00:00:00 8.10278 C 94.6701 % 7.3 C
620 28-10-2015 00:00:00 9.54444 C 91.5382 % 8.24 C
621 29-10-2015 00:00:00 10.48299 C 92.5799 % 9.33 C
622 30-10-2015 00:00:00 7.79965 C 95.7917 % 7.17 C
623 31-10-2015 00:00:00 7.27118 C 93.9479 % 6.36 C
624 01-11-2015 00:00:00 6.57708 C 96.2118 % 6.02 C
625 02-11-2015 00:00:00 4.67431 C 96.7049 % 4.2 C
Sensor: Nr:Datum:Temp:Feuchte:Taupunkt:
Aussen-T/F 626 03-11-2015 00:00:00 4.99896 C 95.2813 % 4.31 C
627 04-11-2015 00:00:00 7.79549 C 94.1146 % 6.91 C
628 05-11-2015 00:00:00 10.38299 C 95.2569 % 9.66 C
629 06-11-2015 00:00:00 13.31493 C 92.8854 % 12.19 C
630 07-11-2015 00:00:00 16.40417 C 94.1493 % 15.46 C
631 08-11-2015 00:00:00 12.97292 C 95.2118 % 12.23 C
632 09-11-2015 00:00:00 14.80846 C 83.2353 % 11.99 C
633 10-11-2015 00:00:00 13.07951 C 84.1493 % 10.47 C
634 11-11-2015 00:00:00 11.7066 C 84.5625 % 9.2 C
635 12-11-2015 00:00:00 11.71562 C 87.6354 % 9.73 C
636 13-11-2015 00:00:00 10.51875 C 88.3993 % 8.68 C
637 14-11-2015 00:00:00 8.91806 C 83.4722 % 6.27 C
638 15-11-2015 00:00:00 12.53854 C 84.1944 % 9.95 C
639 16-11-2015 00:00:00 11.63438 C 83.7708 % 8.99 C
640 17-11-2015 00:00:00 14.03889 C 89.3438 % 12.31 C
641 18-11-2015 00:00:00 13.87604 C 73.4063 % 9.21 C
642 19-11-2015 00:00:00 12.23611 C 85.8750 % 9.94 C
643 20-11-2015 00:00:00 7.64444 C 94.6667 % 6.84 C
644 21-11-2015 00:00:00 3.88021 C 91.2500 % 2.59 C
645 22-11-2015 00:00:00 2.85139 C 91.2396 % 1.57 C
646 23-11-2015 00:00:00 2.48125 C 91.7917 % 1.29 C
647 24-11-2015 00:00:00 1.88785 C 89.9931 % 0.42 C
648 25-11-2015 00:00:00 4.63646 C 91.6528 % 3.4 C
649 26-11-2015 00:00:00 4.92257 C 92.5174 % 3.81 C
650 27-11-2015 00:00:00 2.23299 C 94.7951 % 1.49 C
Sensor: Nr:Datum:Temp:Feuchte:Taupunkt:
Aussen-T/F 651 28-11-2015 00:00:00 4.42821 C 85.6357 % 2.24 C
652 29-11-2015 00:00:00 9.10451 C 86.0660 % 6.9 C
653 30-11-2015 00:00:00 9.89514 C 90.3056 % 8.38 C
654 01-12-2015 00:00:00 11.24618 C 92.4410 % 10.07 C
655 02-12-2015 00:00:00 9.85729 C 87.9375 % 7.96 C
656 03-12-2015 00:00:00 7.55664 C 86.3252 % 5.42 C
657 04-12-2015 00:00:00 6.93333 C 91.5694 % 5.66 C
658 05-12-2015 00:00:00 6.05903 C 89.7500 % 4.51 C
659 06-12-2015 00:00:00 8.44861 C 86.8160 % 6.38 C
660 07-12-2015 00:00:00 8.35868 C 92.6840 % 7.24 C
661 08-12-2015 00:00:00 4.51007 C 97.2292 % 4.11 C
662 09-12-2015 00:00:00 6.58229 C 94.7396 % 5.8 C
663 10-12-2015 00:00:00 3.22882 C 93.5590 % 2.29 C
664 11-12-2015 00:00:00 4.75451 C 92.5069 % 3.65 C
665 12-12-2015 00:00:00 8.05903 C 95.3681 % 7.36 C
666 13-12-2015 00:00:00 8.6316 C 90.9167 % 7.23 C
667 14-12-2015 00:00:00 5.9875 C 96.5243 % 5.48 C
668 15-12-2015 00:00:00 5.6816 C 96.2813 % 5.14 C
669 16-12-2015 00:00:00 9.66146 C 97.4514 % 9.28 C
670 17-12-2015 00:00:00 12.51647 C 94.1098 % 11.6 C
671 18-12-2015 00:00:00 11.17396 C 93.8472 % 10.22 C
672 19-12-2015 00:00:00 11.26667 C 91.7708 % 9.98 C
673 20-12-2015 00:00:00 7.84687 C 96.5278 % 7.33 C
674 21-12-2015 00:00:00 10.07014 C 88.0938 % 8.19 C
675 22-12-2015 00:00:00 11.62281 C 82.5175 % 8.75 C
Sensor: Nr:Datum:Temp:Feuchte:Taupunkt:
Aussen-T/F 676 23-12-2015 00:00:00 10.964 C 81.0000 % 7.83 C
677 24-12-2015 00:00:00 11.76867 C 85.1506 % 9.36 C
678 25-12-2015 00:00:00 11.08646 C 87.9063 % 9.16 C
679 26-12-2015 00:00:00 10.37257 C 87.6354 % 8.41 C
680 27-12-2015 00:00:00 7.5375 C 92.7847 % 6.45 C
681 28-12-2015 00:00:00 2.6941 C 97.0833 % 2.28 C
682 29-12-2015 00:00:00 3.10521 C 97.6493 % 2.77 C
683 30-12-2015 00:00:00 4.88299 C 93.8507 % 3.98 C
684 31-12-2015 00:00:00 5.0934 C 93.0000 % 4.06 C
685 01-01-2016 00:00:00 4.17222 C 95.5521 % 3.53 C
686 02-01-2016 00:00:00 4.50451 C 93.6563 % 3.57 C
687 03-01-2016 00:00:00 5.64826 C 92.3889 % 4.51 C
688 04-01-2016 00:00:00 5.3184 C 94.4861 % 4.51 C
689 05-01-2016 00:00:00 6.45694 C 91.6285 % 5.2 C
690 06-01-2016 00:00:00 5.95903 C 94.3542 % 5.12 C
691 07-01-2016 00:00:00 5.04028 C 94.1042 % 4.17 C
692 08-01-2016 00:00:00 3.28646 C 90.7396 % 1.92 C
693 09-01-2016 00:00:00 1.12292 C 97.2361 % 0.73 C
694 10-01-2016 00:00:00 6.27708 C 91.8785 % 5.06 C
695 11-01-2016 00:00:00 5.25729 C 94.6875 % 4.48 C
696 12-01-2016 00:00:00 5.58229 C 88.8229 % 3.89 C
697 13-01-2016 00:00:00 4.93333 C 89.9931 % 3.43 C
698 14-01-2016 00:00:00 3.31701 C 89.1944 % 1.71 C
699 15-01-2016 00:00:00 2.89062 C 90.6806 % 1.52 C
700 16-01-2016 00:00:00 2.0875 C 90.9653 % 0.77 C
Sensor: Nr:Datum:Temp:Feuchte:Taupunkt:
Aussen-T/F 701 17-01-2016 00:00:00 0.26424 C 83.9583 % -2.12 C
702 18-01-2016 00:00:00 -4.85799 C 90.6840 % -6.14 C
703 19-01-2016 00:00:00 -5.27882 C 89.7257 % -6.7 C
704 20-01-2016 00:00:00 -1.61806 C 91.4618 % -2.82 C
705 21-01-2016 00:00:00 0.6684 C 92.9618 % -0.34 C
706 22-01-2016 00:00:00 -2.10729 C 91.9201 % -3.24 C
707 23-01-2016 00:00:00 4.1559 C 94.7465 % 3.39 C
708 24-01-2016 00:00:00 5.37396 C 93.7882 % 4.46 C
709 25-01-2016 00:00:00 7.51076 C 93.2813 % 6.5 C
710 26-01-2016 00:00:00 9.35729 C 85.4410 % 7.04 C
711 27-01-2016 00:00:00 11.44792 C 70.5313 % 6.29 C
712 28-01-2016 00:00:00 7.3625 C 85.9931 % 5.18 C
713 29-01-2016 00:00:00 5.64583 C 86.0833 % 3.51 C
714 30-01-2016 00:00:00 7.42914 C 86.8885 % 5.39 C
715 31-01-2016 00:00:00 6.31944 C 89.3819 % 4.7 C
716 01-02-2016 00:00:00 11.92326 C 84.3993 % 9.38 C
717 02-02-2016 00:00:00 10.40035 C 86.6354 % 8.27 C
718 03-02-2016 00:00:00 5.14306 C 85.1354 % 2.86 C
719 04-02-2016 00:00:00 4.62118 C 90.7153 % 3.24 C
720 05-02-2016 00:00:00 7.46076 C 91.2847 % 6.13 C
721 06-02-2016 00:00:00 8.36806 C 86.5069 % 6.25 C
722 07-02-2016 00:00:00 9.22743 C 76.8021 % 5.37 C
723 08-02-2016 00:00:00 8.09062 C 80.4167 % 4.93 C
724 09-02-2016 00:00:00 7.11076 C 85.9306 % 4.92 C
725 10-02-2016 00:00:00 4.86562 C 85.1493 % 2.59 C
Sensor: Nr:Datum:Temp:Feuchte:Taupunkt:
Aussen-T/F 726 11-02-2016 00:00:00 4.89444 C 87.2674 % 2.96 C
727 12-02-2016 00:00:00 3.0316 C 85.9826 % 0.92 C
728 13-02-2016 00:00:00 1.57049 C 93.5625 % 0.65 C
729 14-02-2016 00:00:00 4.64965 C 94.9931 % 3.92 C
730 15-02-2016 00:00:00 2.20278 C 91.7396 % 1 C
731 16-02-2016 00:00:00 0.19792 C 81.4688 % -2.59 C
732 17-02-2016 00:00:00 0.40625 C 88.6771 % -1.24 C
733 18-02-2016 00:00:00 2.11285 C 85.4514 % -0.07 C
734 19-02-2016 00:00:00 1.43507 C 92.3472 % 0.33 C
735 20-02-2016 00:00:00 6.41528 C 92.1944 % 5.24 C
736 21-02-2016 00:00:00 11.8375 C 88.1042 % 9.93 C
737 22-02-2016 00:00:00 9.57778 C 85.1250 % 7.21 C
738 23-02-2016 00:00:00 2.26424 C 95.8333 % 1.67 C
739 24-02-2016 00:00:00 2.15243 C 91.2674 % 0.88 C
740 25-02-2016 00:00:00 0.66597 C 90.3507 % -0.73 C
741 26-02-2016 00:00:00 2.36771 C 85.4931 % 0.19 C
742 27-02-2016 00:00:00 2.35694 C 77.3333 % -1.19 C
743 28-02-2016 00:00:00 2.12509 C 77.4145 % -1.4 C
744 29-02-2016 00:00:00 3.32569 C 70.7847 % -1.46 C
745 01-03-2016 00:00:00 1.1875 C 81.7361 % -1.58 C
746 02-03-2016 00:00:00 6.5125 C 83.4375 % 3.91 C
747 03-03-2016 00:00:00 3.61736 C 87.0208 % 1.66 C
748 04-03-2016 00:00:00 1.76528 C 93.4722 % 0.83 C
749 05-03-2016 00:00:00 4.32153 C 92.1042 % 3.16 C
750 06-03-2016 00:00:00 3.0434 C 94.2535 % 2.21 C
Sensor: Nr:Datum:Temp:Feuchte:Taupunkt:
Aussen-T/F 751 07-03-2016 00:00:00 2.40347 C 93.7049 % 1.5 C
752 08-03-2016 00:00:00 1.75521 C 90.5972 % 0.39 C
753 09-03-2016 00:00:00 2.60799 C 83.1042 % 0.04 C
754 10-03-2016 00:00:00 2.73576 C 83.8264 % 0.28 C
755 11-03-2016 00:00:00 4.25868 C 83.4757 % 1.71 C
756 12-03-2016 00:00:00 4.36424 C 78.1215 % 0.9 C
757 13-03-2016 00:00:00 5.06944 C 77.3924 % 1.45 C
758 14-03-2016 00:00:00 4.20451 C 71.0174 % -0.57 C
759 15-03-2016 00:00:00 3.53264 C 80.5833 % 0.52 C
760 16-03-2016 00:00:00 4.7066 C 73.0556 % 0.3 C
761 17-03-2016 00:00:00 4.57049 C 75.0625 % 0.54 C
762 18-03-2016 00:00:00 3.8934 C 83.0868 % 1.29 C
763 19-03-2016 00:00:00 5.67465 C 87.0938 % 3.7 C
764 20-03-2016 00:00:00 5.89583 C 80.9514 % 2.88 C
765 21-03-2016 00:00:00 7.0625 C 84.7813 % 4.68 C
766 22-03-2016 00:00:00 8.10035 C 79.6354 % 4.8 C
767 23-03-2016 00:00:00 7.93438 C 81.8576 % 5.03 C
768 24-03-2016 00:00:00 7.05069 C 85.9410 % 4.86 C
769 25-03-2016 00:00:00 6.93125 C 92.5347 % 5.81 C
770 26-03-2016 00:00:00 9.02778 C 82.5382 % 6.22 C
771 27-03-2016 00:00:00 9.36558 C 82.0543 % 6.46 C
772 28-03-2016 00:00:00 8.24167 C 84.3993 % 5.77 C
773 29-03-2016 00:00:00 9.19792 C 74.2535 % 4.86 C
774 30-03-2016 00:00:00 9.98958 C 84.7431 % 7.54 C
775 31-03-2016 00:00:00 7.10243 C 92.7153 % 6 C
Sensor: Nr:Datum:Temp:Feuchte:Taupunkt:
Aussen-T/F 776 01-04-2016 00:00:00 7.02396 C 85.1076 % 4.7 C
777 02-04-2016 00:00:00 8.56007 C 85.2361 % 6.23 C
778 03-04-2016 00:00:00 13.56285 C 81.3472 % 10.43 C
779 04-04-2016 00:00:00 13.63299 C 81.7951 % 10.58 C
780 05-04-2016 00:00:00 11.25069 C 92.5313 % 10.09 C
781 06-04-2016 00:00:00 10.87153 C 79.3507 % 7.44 C
782 07-04-2016 00:00:00 8.49479 C 75.7014 % 4.46 C
783 08-04-2016 00:00:00 6.48403 C 79.6181 % 3.22 C
784 09-04-2016 00:00:00 8.00139 C 72.3785 % 3.34 C
785 10-04-2016 00:00:00 11.74757 C 69.9479 % 6.45 C
786 11-04-2016 00:00:00 12.00972 C 70.4757 % 6.81 C
787 12-04-2016 00:00:00 11.31181 C 78.9861 % 7.8 C
788 13-04-2016 00:00:00 8.81354 C 93.8854 % 7.88 C
789 14-04-2016 00:00:00 10.59722 C 80.6215 % 7.41 C
790 15-04-2016 00:00:00 13.04618 C 74.1493 % 8.55 C
791 16-04-2016 00:00:00 11.99514 C 81.5035 % 8.93 C
792 17-04-2016 00:00:00 8.41111 C 77.1875 % 4.65 C
793 18-04-2016 00:00:00 7.11632 C 74.6910 % 2.94 C
794 19-04-2016 00:00:00 8.83507 C 72.7292 % 4.22 C
795 20-04-2016 00:00:00 9.1559 C 66.4826 % 3.25 C
796 21-04-2016 00:00:00 11.43229 C 64.2431 % 4.93 C
797 22-04-2016 00:00:00 13.17674 C 62.2014 % 6.11 C
798 23-04-2016 00:00:00 7.88299 C 78.2292 % 4.33 C
799 24-04-2016 00:00:00 5.24444 C 78.5243 % 1.82 C
800 25-04-2016 00:00:00 4.71632 C 85.9792 % 2.58 C
Sensor: Nr:Datum:Temp:Feuchte:Taupunkt:
Aussen-T/F 801 26-04-2016 00:00:00 4.5934 C 82.9306 % 1.95 C
802 27-04-2016 00:00:00 5.57465 C 78.2847 % 2.1 C
803 28-04-2016 00:00:00 6.65 C 71.1007 % 1.8 C
804 29-04-2016 00:00:00 7.88056 C 69.0972 % 2.58 C
805 30-04-2016 00:00:00 7.70174 C 83.3611 % 5.06 C
806 01-05-2016 00:00:00 10.10486 C 81.5451 % 7.09 C
807 02-05-2016 00:00:00 12.06389 C 73.2674 % 7.43 C
808 03-05-2016 00:00:00 10.93785 C 75.7222 % 6.83 C
809 04-05-2016 00:00:00 9.10035 C 68.4063 % 3.6 C
810 05-05-2016 00:00:00 11.45347 C 67.3507 % 5.63 C
811 06-05-2016 00:00:00 15.34618 C 68.6806 % 9.63 C
812 07-05-2016 00:00:00 16.83542 C 65.2604 % 10.28 C
813 08-05-2016 00:00:00 18.59861 C 52.5521 % 8.72 C
814 09-05-2016 00:00:00 18.28715 C 61.7326 % 10.82 C
815 10-05-2016 00:00:00 17.08646 C 77.6076 % 13.15 C
816 11-05-2016 00:00:00 17.43438 C 75.9340 % 13.15 C
817 12-05-2016 00:00:00 17.84271 C 69.8472 % 12.27 C
818 13-05-2016 00:00:00 14.31736 C 89.5903 % 12.63 C
819 14-05-2016 00:00:00 10.45972 C 71.9549 % 5.63 C
820 15-05-2016 00:00:00 9.07743 C 70.0069 % 3.91 C
821 16-05-2016 00:00:00 9.98819 C 70.5069 % 4.88 C
822 17-05-2016 00:00:00 12.31563 C 69.0139 % 6.8 C
823 18-05-2016 00:00:00 14.47535 C 74.1007 % 9.92 C
824 19-05-2016 00:00:00 14.04722 C 75.6667 % 9.82 C
825 20-05-2016 00:00:00 14.08125 C 79.6771 % 10.63 C
Sensor: Nr:Datum:Temp:Feuchte:Taupunkt:
Aussen-T/F 826 21-05-2016 00:00:00 17.67708 C 74.5382 % 13.1 C
827 22-05-2016 00:00:00 18.70312 C 72.9201 % 13.75 C
828 23-05-2016 00:00:00 14.01632 C 83.2743 % 11.23 C
829 24-05-2016 00:00:00 10.97431 C 91.3264 % 9.62 C
830 25-05-2016 00:00:00 12.7125 C 87.5069 % 10.69 C
831 26-05-2016 00:00:00 14.89826 C 81.0938 % 11.69 C
832 27-05-2016 00:00:00 16.77849 C 90.6534 % 15.24 C
833 28-05-2016 00:00:00 18.08383 C 88.8922 % 16.22 C
834 29-05-2016 00:00:00 17.36528 C 89.6007 % 15.64 C
835 30-05-2016 00:00:00 17.49722 C 93.2639 % 16.4 C
836 31-05-2016 00:00:00 16.51458 C 87.4861 % 14.43 C
837 01-06-2016 00:00:00 15.69931 C 94.7153 % 14.85 C
838 02-06-2016 00:00:00 17.51979 C 92.0035 % 16.21 C
839 03-06-2016 00:00:00 16.76875 C 94.6806 % 15.91 C
840 04-06-2016 00:00:00 17.85104 C 90.8472 % 16.34 C
841 05-06-2016 00:00:00 19.18611 C 89.0486 % 17.34 C
842 06-06-2016 00:00:00 19.18785 C 86.9896 % 16.97 C
843 07-06-2016 00:00:00 19.88403 C 82.1597 % 16.75 C
844 08-06-2016 00:00:00 19.56354 C 77.2500 % 15.47 C
845 09-06-2016 00:00:00 17.3191 C 71.5556 % 12.13 C
846 10-06-2016 00:00:00 16.15521 C 71.4444 % 10.99 C
847 11-06-2016 00:00:00 17.56701 C 74.5035 % 12.99 C
848 12-06-2016 00:00:00 17.18299 C 86.9931 % 15 C
849 13-06-2016 00:00:00 15.94479 C 94.8472 % 15.12 C
850 14-06-2016 00:00:00 16.36597 C 87.8507 % 14.35 C
Sensor: Nr:Datum:Temp:Feuchte:Taupunkt:
Aussen-T/F 851 15-06-2016 00:00:00 15.42431 C 86.9340 % 13.26 C
852 16-06-2016 00:00:00 13.77292 C 93.5903 % 12.76 C
853 17-06-2016 00:00:00 14.68889 C 90.7882 % 13.2 C
854 18-06-2016 00:00:00 14.84861 C 87.4549 % 12.79 C
855 19-06-2016 00:00:00 15.40278 C 75.9653 % 11.19 C
856 20-06-2016 00:00:00 14.61979 C 81.8958 % 11.56 C
857 21-06-2016 00:00:00 18.21736 C 88.4757 % 16.28 C
858 22-06-2016 00:00:00 20.84792 C 87.8333 % 18.76 C
859 23-06-2016 00:00:00 23.76528 C 81.5243 % 20.41 C
860 24-06-2016 00:00:00 22.11979 C 90.4826 % 20.49 C
861 25-06-2016 00:00:00 16.85451 C 95.9306 % 16.2 C
862 26-06-2016 00:00:00 15.41562 C 85.3854 % 12.98 C
863 27-06-2016 00:00:00 15.91562 C 86.7743 % 13.72 C
864 28-06-2016 00:00:00 18.26597 C 84.3646 % 15.58 C
865 29-06-2016 00:00:00 19.04444 C 74.5521 % 14.42 C
866 30-06-2016 00:00:00 18.7566 C 80.8264 % 15.4 C
867 01-07-2016 00:00:00 19.88194 C 81.0556 % 16.54 C
868 02-07-2016 00:00:00 16.90868 C 78.6840 % 13.18 C
869 03-07-2016 00:00:00 15.21559 C 83.5437 % 12.45 C
870 04-07-2016 00:00:00 17.43333 C 82.9201 % 14.5 C
871 05-07-2016 00:00:00 19.40903 C 78.1979 % 15.51 C
872 06-07-2016 00:00:00 16.61042 C 74.0104 % 11.96 C
873 07-07-2016 00:00:00 17.08576 C 77.8785 % 13.2 C
874 08-07-2016 00:00:00 18.87222 C 80.7292 % 15.49 C
875 09-07-2016 00:00:00 21.08889 C 76.2778 % 16.75 C
Sensor: Nr:Datum:Temp:Feuchte:Taupunkt:
Aussen-T/F 876 10-07-2016 00:00:00 21.92535 C 79.2431 % 18.17 C
877 11-07-2016 00:00:00 21.61701 C 73.7326 % 16.73 C
878 12-07-2016 00:00:00 19.06354 C 74.7049 % 14.47 C
879 13-07-2016 00:00:00 14.71319 C 91.3750 % 13.32 C
880 14-07-2016 00:00:00 14.94583 C 79.4063 % 11.42 C
881 15-07-2016 00:00:00 16.08229 C 74.0417 % 11.46 C
882 16-07-2016 00:00:00 16.98542 C 83.0451 % 14.09 C
883 17-07-2016 00:00:00 21.34757 C 80.4132 % 17.84 C
884 18-07-2016 00:00:00 21.85069 C 75.3924 % 17.3 C
885 19-07-2016 00:00:00 21.61667 C 78.1597 % 17.65 C
886 20-07-2016 00:00:00 23.34097 C 74.8785 % 18.63 C
887 21-07-2016 00:00:00 21.23924 C 86.6632 % 18.93 C
888 22-07-2016 00:00:00 20.96806 C 88.7674 % 19.04 C
889 23-07-2016 00:00:00 20.3434 C 91.5104 % 18.91 C
890 24-07-2016 00:00:00 22.0941 C 85.4583 % 19.54 C
891 25-07-2016 00:00:00 21.8191 C 81.6910 % 18.55 C
892 26-07-2016 00:00:00 20.20208 C 86.3333 % 17.85 C
893 27-07-2016 00:00:00 19.62986 C 81.0313 % 16.29 C
894 28-07-2016 00:00:00 20.20174 C 82.7986 % 17.18 C
895 29-07-2016 00:00:00 19.81042 C 85.1319 % 17.24 C
896 30-07-2016 00:00:00 20.55278 C 78.7326 % 16.73 C
897 31-07-2016 00:00:00 18.14444 C 80.7535 % 14.79 C
898 01-08-2016 00:00:00 16.63958 C 78.4757 % 12.88 C
899 02-08-2016 00:00:00 16.16875 C 92.2986 % 14.92 C
900 03-08-2016 00:00:00 18.55174 C 94.0938 % 17.58 C
Sensor: Nr:Datum:Temp:Feuchte:Taupunkt:
Aussen-T/F 901 04-08-2016 00:00:00 18.01667 C 94.7188 % 17.16 C
902 05-08-2016 00:00:00 16.58403 C 88.5486 % 14.69 C
903 06-08-2016 00:00:00 17.59097 C 86.3924 % 15.29 C
904 07-08-2016 00:00:00 18.92153 C 81.4306 % 15.67 C
905 08-08-2016 00:00:00 19.25521 C 77.6701 % 15.26 C
906 09-08-2016 00:00:00 16.42986 C 72.2361 % 11.42 C
907 10-08-2016 00:00:00 13.02465 C 80.0243 % 9.66 C
908 11-08-2016 00:00:00 12.3 C 83.5417 % 9.6 C
909 12-08-2016 00:00:00 17.31701 C 90.8264 % 15.8 C
910 13-08-2016 00:00:00 20.62604 C 78.3715 % 16.73 C
911 14-08-2016 00:00:00 19.08924 C 80.5139 % 15.66 C
912 15-08-2016 00:00:00 18.95451 C 78.0243 % 15.04 C
913 16-08-2016 00:00:00 18.07778 C 75.1632 % 13.61 C
914 17-08-2016 00:00:00 18.14653 C 73.3785 % 13.31 C
915 18-08-2016 00:00:00 17.22743 C 82.1597 % 14.16 C
916 19-08-2016 00:00:00 19.36181 C 83.5174 % 16.5 C
917 20-08-2016 00:00:00 18.84757 C 83.1701 % 15.93 C
918 21-08-2016 00:00:00 17.07361 C 80.3611 % 13.67 C
919 22-08-2016 00:00:00 17.30799 C 84.0833 % 14.59 C
920 23-08-2016 00:00:00 19.09167 C 77.7708 % 15.12 C
921 24-08-2016 00:00:00 20.54583 C 77.3750 % 16.45 C
922 25-08-2016 00:00:00 21.59896 C 76.2118 % 17.23 C
923 26-08-2016 00:00:00 22.53715 C 76.8542 % 18.27 C
924 27-08-2016 00:00:00 23.96528 C 78.7674 % 20.05 C
925 28-08-2016 00:00:00 23.4684 C 72.0660 % 18.14 C
Sensor: Nr:Datum:Temp:Feuchte:Taupunkt:
Aussen-T/F 926 29-08-2016 00:00:00 18.98993 C 79.2326 % 15.31 C
927 30-08-2016 00:00:00 18.11736 C 75.7917 % 13.78 C
928 31-08-2016 00:00:00 17.84514 C 77.5278 % 13.86 C
929 01-09-2016 00:00:00 19.62431 C 75.6736 % 15.21 C
930 02-09-2016 00:00:00 18.78785 C 78.7361 % 15.02 C
931 03-09-2016 00:00:00 20.71944 C 73.6319 % 15.84 C
932 04-09-2016 00:00:00 18.18681 C 81.7396 % 15.02 C
933 05-09-2016 00:00:00 17.73715 C 79.3021 % 14.11 C
934 06-09-2016 00:00:00 16.62882 C 82.0938 % 13.56 C
935 07-09-2016 00:00:00 17.39792 C 80.3299 % 13.98 C
936 08-09-2016 00:00:00 19.44722 C 79.7535 % 15.86 C
937 09-09-2016 00:00:00 20.12222 C 70.5451 % 14.6 C
938 10-09-2016 00:00:00 19.21944 C 81.0729 % 15.89 C
939 11-09-2016 00:00:00 18.8684 C 76.5243 % 14.65 C
940 12-09-2016 00:00:00 19.58437 C 79.0764 % 15.86 C
941 13-09-2016 00:00:00 21.20937 C 77.7431 % 17.17 C
942 14-09-2016 00:00:00 20.91319 C 74.3924 % 16.19 C
943 15-09-2016 00:00:00 20.02847 C 76.3229 % 15.74 C
944 16-09-2016 00:00:00 17.33889 C 85.6076 % 14.9 C
945 17-09-2016 00:00:00 15.96146 C 85.0660 % 13.45 C
946 18-09-2016 00:00:00 17.13993 C 89.9549 % 15.48 C
947 19-09-2016 00:00:00 15.49201 C 84.4688 % 12.89 C
948 20-09-2016 00:00:00 14.8184 C 88.4965 % 12.94 C
949 21-09-2016 00:00:00 13.86563 C 78.4618 % 10.19 C
950 22-09-2016 00:00:00 11.70625 C 84.6944 % 9.22 C
Sensor: Nr:Datum:Temp:Feuchte:Taupunkt:
Aussen-T/F 951 23-09-2016 00:00:00 13.62518 C 86.6383 % 11.44 C
952 24-09-2016 00:00:00 13.82326 C 85.2188 % 11.39 C
953 25-09-2016 00:00:00 14.39201 C 85.4653 % 11.99 C
954 26-09-2016 00:00:00 14.99062 C 86.0799 % 12.68 C
955 27-09-2016 00:00:00 13.42847 C 93.2951 % 12.37 C
956 28-09-2016 00:00:00 15.2816 C 85.6632 % 12.9 C
957 29-09-2016 00:00:00 18.69375 C 79.3299 % 15.04 C
958 30-09-2016 00:00:00 15.12813 C 89.0451 % 13.34 C
959 01-10-2016 00:00:00 13.55804 C 95.6643 % 12.88 C
960 02-10-2016 00:00:00 12.49271 C 89.3333 % 10.79 C
961 03-10-2016 00:00:00 12.49236 C 92.3958 % 11.29 C
962 04-10-2016 00:00:00 10.89931 C 93.8333 % 9.95 C
963 05-10-2016 00:00:00 8.62465 C 83.2986 % 5.96 C
964 06-10-2016 00:00:00 7.98125 C 88.4201 % 6.19 C
965 07-10-2016 00:00:00 10.85069 C 93.5208 % 9.85 C
966 08-10-2016 00:00:00 9.28854 C 94.1042 % 8.39 C
967 09-10-2016 00:00:00 8.50868 C 91.9167 % 7.27 C
968 10-10-2016 00:00:00 6.46875 C 92.8993 % 5.41 C
969 11-10-2016 00:00:00 7.98993 C 90.9514 % 6.61 C
970 12-10-2016 00:00:00 8.69201 C 90.6111 % 7.24 C
971 13-10-2016 00:00:00 7.54583 C 87.7118 % 5.64 C
972 14-10-2016 00:00:00 9.31042 C 87.7674 % 7.39 C
973 15-10-2016 00:00:00 11.21667 C 90.9028 % 9.79 C
974 16-10-2016 00:00:00 8.72222 C 95.3646 % 8.02 C
975 17-10-2016 00:00:00 10.64132 C 96.5833 % 10.12 C
Sensor: Nr:Datum:Temp:Feuchte:Taupunkt:
Aussen-T/F 976 18-10-2016 00:00:00 11.33924 C 92.4236 % 10.16 C
977 19-10-2016 00:00:00 9.26389 C 89.1597 % 7.57 C
978 20-10-2016 00:00:00 8.03368 C 95.9097 % 7.42 C
979 21-10-2016 00:00:00 7.65845 C 95.9498 % 7.05 C
980 22-10-2016 00:00:00 7.80729 C 96.0000 % 7.21 C
981 23-10-2016 00:00:00 6.84236 C 95.3368 % 6.15 C
982 24-10-2016 00:00:00 9.37778 C 96.9931 % 8.93 C
983 25-10-2016 00:00:00 11.21424 C 95.8507 % 10.58 C
984 26-10-2016 00:00:00 9.47049 C 94.1597 % 8.58 C
985 27-10-2016 00:00:00 8.9309 C 95.3750 % 8.23 C
986 28-10-2016 00:00:00 11.35833 C 91.6597 % 10.05 C
987 29-10-2016 00:00:00 11.58854 C 90.4965 % 10.09 C
988 30-10-2016 00:00:00 7.61215 C 95.8229 % 6.99 C
989 31-10-2016 00:00:00 7.10417 C 96.0694 % 6.52 C
990 01-11-2016 00:00:00 6.92431 C 97.0694 % 6.49 C
991 02-11-2016 00:00:00 7.39618 C 91.7292 % 6.14 C
992 03-11-2016 00:00:00 6.31493 C 91.8819 % 5.09 C
993 04-11-2016 00:00:00 4.72674 C 94.8819 % 3.98 C
994 05-11-2016 00:00:00 6.88299 C 96.7118 % 6.4 C
995 06-11-2016 00:00:00 5.54201 C 89.6458 % 3.98 C
996 07-11-2016 00:00:00 4.69097 C 93.6354 % 3.75 C
997 08-11-2016 00:00:00 3.20521 C 92.4167 % 2.1 C
998 09-11-2016 00:00:00 3.69722 C 94.5417 % 2.9 C
999 10-11-2016 00:00:00 5.22847 C 94.8403 % 4.47 C
1000 11-11-2016 00:00:00 5.08785 C 96.2569 % 4.54 C
Sensor: Nr:Datum:Temp:Feuchte:Taupunkt:
Aussen-T/F 1001 12-11-2016 00:00:00 2.06181 C 93.0764 % 1.06 C
1002 13-11-2016 00:00:00 2.12049 C 91.5347 % 0.89 C
1003 14-11-2016 00:00:00 -0.38611 C 93.0799 % -1.37 C
1004 15-11-2016 00:00:00 4.75208 C 92.9931 % 3.72 C
1005 16-11-2016 00:00:00 9.88715 C 95.6910 % 9.23 C
1006 17-11-2016 00:00:00 10.99757 C 89.4340 % 9.33 C
1007 18-11-2016 00:00:00 9.44792 C 85.6667 % 7.17 C
1008 19-11-2016 00:00:00 5.51319 C 87.6146 % 3.63 C
1009 20-11-2016 00:00:00 9.3559 C 81.1806 % 6.3 C
1010 21-11-2016 00:00:00 10.27813 C 92.0208 % 9.04 C
1011 22-11-2016 00:00:00 10.22222 C 93.8160 % 9.27 C
1012 23-11-2016 00:00:00 8.56389 C 96.9931 % 8.11 C
1013 24-11-2016 00:00:00 8.79306 C 94.5590 % 7.97 C
1014 25-11-2016 00:00:00 7.72222 C 85.3924 % 5.43 C
1015 26-11-2016 00:00:00 6.87708 C 88.3542 % 5.09 C
1016 27-11-2016 00:00:00 5.11215 C 92.9514 % 4.07 C
1017 28-11-2016 00:00:00 -0.13333 C 93.4583 % -1.06 C
1018 29-11-2016 00:00:00 -2.74097 C 91.0382 % -4 C
1019 30-11-2016 00:00:00 -2.71076 C 92.1319 % -3.81 C
1020 01-12-2016 00:00:00 3.3875 C 84.6354 % 1.05 C
1021 02-12-2016 00:00:00 5.17361 C 93.7917 % 4.26 C
1022 03-12-2016 00:00:00 -0.32882 C 96.9410 % -0.75 C
1023 04-12-2016 00:00:00 -2.61215 C 96.1840 % -3.13 C
1024 05-12-2016 00:00:00 -3.83507 C 95.3438 % -4.47 C
1025 06-12-2016 00:00:00 -3.15903 C 95.5972 % -3.76 C
Sensor: Nr:Datum:Temp:Feuchte:Taupunkt:
Aussen-T/F 1026 07-12-2016 00:00:00 -0.29965 C 96.1111 % -0.84 C
1027 08-12-2016 00:00:00 1.07778 C 94.8542 % 0.35 C
1028 09-12-2016 00:00:00 6.58819 C 84.4861 % 4.17 C
1029 10-12-2016 00:00:00 5.04201 C 91.7743 % 3.82 C
1030 11-12-2016 00:00:00 8.10174 C 85.5174 % 5.82 C
1031 12-12-2016 00:00:00 6.76563 C 92.9792 % 5.71 C
1032 13-12-2016 00:00:00 4.10868 C 96.3160 % 3.58 C
1033 14-12-2016 00:00:00 6.42569 C 95.7986 % 5.81 C
1034 15-12-2016 00:00:00 6.89583 C 94.3924 % 6.06 C
1035 16-12-2016 00:00:00 4.60451 C 88.2778 % 2.84 C
1036 17-12-2016 00:00:00 3.86806 C 91.7222 % 2.65 C
1037 18-12-2016 00:00:00 5.3059 C 94.3750 % 4.48 C
1038 19-12-2016 00:00:00 4.3816 C 89.4236 % 2.8 C
1039 20-12-2016 00:00:00 1.0875 C 91.6424 % -0.12 C
1040 21-12-2016 00:00:00 2.26076 C 91.9444 % 1.09 C
1041 22-12-2016 00:00:00 3.84896 C 93.6701 % 2.92 C
1042 23-12-2016 00:00:00 4.14757 C 95.4340 % 3.48 C
1043 24-12-2016 00:00:00 7.17188 C 86.6597 % 5.1 C
1044 25-12-2016 00:00:00 8.5434 C 89.2674 % 6.88 C
1045 26-12-2016 00:00:00 7.71215 C 88.2118 % 5.89 C
1046 27-12-2016 00:00:00 4.30139 C 88.8160 % 2.62 C
1047 28-12-2016 00:00:00 3.53819 C 90.0035 % 2.06 C
1048 29-12-2016 00:00:00 -1.78438 C 96.3299 % -2.29 C
1049 30-12-2016 00:00:00 -2.37014 C 96.3924 % -2.86 C
1050 31-12-2016 00:00:00 -4.09028 C 95.6424 % -4.68 C
Sensor: Nr:Datum:Temp:Feuchte:Taupunkt:
Aussen-T/F 1051 01-01-2017 00:00:00 -2.24792 C 95.3854 % -2.88 C
1052 02-01-2017 00:00:00 0.68021 C 94.3229 % -0.12 C
1053 03-01-2017 00:00:00 1.83819 C 91.4340 % 0.59 C
1054 04-01-2017 00:00:00 3.52049 C 90.0556 % 2.05 C
1055 05-01-2017 00:00:00 0.04687 C 83.2813 % -2.44 C
1056 06-01-2017 00:00:00 -6.48125 C 90.3090 % -7.8 C
1057 07-01-2017 00:00:00 -4.20694 C 86.7674 % -6.08 C
1058 08-01-2017 00:00:00 0.59306 C 95.4583 % -0.05 C
1059 09-01-2017 00:00:00 2.15 C 93.8819 % 1.27 C
1060 10-01-2017 00:00:00 1.40799 C 95.5625 % 0.78 C
1061 11-01-2017 00:00:00 3.72639 C 93.5799 % 2.79 C
1062 12-01-2017 00:00:00 4.3066 C 88.2396 % 2.54 C
1063 13-01-2017 00:00:00 2.18576 C 91.4097 % 0.94 C
1064 14-01-2017 00:00:00 2.66806 C 85.3611 % 0.46 C
1065 15-01-2017 00:00:00 0.83819 C 92.1910 % -0.28 C
1066 16-01-2017 00:00:00 -1.62361 C 93.6910 % -2.5 C
1067 17-01-2017 00:00:00 -3.91493 C 91.1875 % -5.14 C
1068 18-01-2017 00:00:00 -5.38646 C 91.6875 % -6.52 C
1069 19-01-2017 00:00:00 -6.17292 C 92.2153 % -7.23 C
1070 20-01-2017 00:00:00 -6.54167 C 91.1458 % -7.74 C
1071 21-01-2017 00:00:00 -5.94167 C 92.0660 % -7.02 C
1072 22-01-2017 00:00:00 -7.48889 C 92.6806 % -8.47 C
1073 23-01-2017 00:00:00 -5.41458 C 93.0035 % -6.36 C
1074 24-01-2017 00:00:00 -0.75035 C 91.2257 % -2 C
1075 25-01-2017 00:00:00 -1.16701 C 83.8021 % -3.55 C
Sensor: Nr:Datum:Temp:Feuchte:Taupunkt:
Aussen-T/F 1076 26-01-2017 00:00:00 -1.71667 C 84.5069 % -3.98 C
1077 27-01-2017 00:00:00 -3.44306 C 90.2188 % -4.81 C
1078 28-01-2017 00:00:00 -1.90347 C 90.7083 % -3.22 C
1079 29-01-2017 00:00:00 2.8691 C 91.9722 % 1.7 C
1080 30-01-2017 00:00:00 4.73507 C 94.6528 % 3.95 C
1081 31-01-2017 00:00:00 3.29583 C 91.5174 % 2.05 C
1082 01-02-2017 00:00:00 3.48611 C 87.9896 % 1.69 C
1083 02-02-2017 00:00:00 5.1434 C 94.4132 % 4.32 C
1084 03-02-2017 00:00:00 5.66007 C 94.2396 % 4.81 C
1085 04-02-2017 00:00:00 6.00556 C 89.9549 % 4.49 C
1086 05-02-2017 00:00:00 4.83993 C 91.1181 % 3.52 C
1087 06-02-2017 00:00:00 3.82396 C 89.6493 % 2.28 C
1088 07-02-2017 00:00:00 4.2184 C 89.5347 % 2.66 C
1089 08-02-2017 00:00:00 2.98785 C 85.8160 % 0.85 C
1090 09-02-2017 00:00:00 0.05903 C 84.0729 % -2.3 C
1091 10-02-2017 00:00:00 0.67222 C 82.7813 % -1.91 C
1092 11-02-2017 00:00:00 1.79896 C 93.6910 % 0.89 C
1093 12-02-2017 00:00:00 2.74132 C 92.1215 % 1.59 C
1094 13-02-2017 00:00:00 3.48576 C 82.9653 % 0.87 C
1095 14-02-2017 00:00:00 1.66042 C 85.0833 % -0.57 C
1096 15-02-2017 00:00:00 2.27639 C 90.1181 % 0.83 C
1097 16-02-2017 00:00:00 4.06597 C 95.0382 % 3.34 C
1098 17-02-2017 00:00:00 6.02222 C 95.7882 % 5.4 C
1099 18-02-2017 00:00:00 5.94097 C 89.9375 % 4.42 C
1100 19-02-2017 00:00:00 3.47083 C 91.4722 % 2.22 C
Sensor: Nr:Datum:Temp:Feuchte:Taupunkt:
Aussen-T/F 1101 20-02-2017 00:00:00 8.45104 C 91.1111 % 7.09 C
1102 21-02-2017 00:00:00 10.41458 C 92.1806 % 9.2 C
1103 22-02-2017 00:00:00 11.10243 C 86.9167 % 9.01 C
1104 23-02-2017 00:00:00 9.37708 C 82.3160 % 6.52 C
1105 24-02-2017 00:00:00 5.21007 C 80.1215 % 2.07 C
1106 25-02-2017 00:00:00 3.83993 C 84.8889 % 1.54 C
1107 26-02-2017 00:00:00 8.62951 C 75.2188 % 4.5 C
1108 27-02-2017 00:00:00 10.96042 C 73.1771 % 6.35 C
1109 28-02-2017 00:00:00 5.79618 C 82.1285 % 2.99 C
1110 01-03-2017 00:00:00 6.67257 C 86.8229 % 4.64 C
1111 02-03-2017 00:00:00 8.27986 C 68.5764 % 2.85 C
1112 03-03-2017 00:00:00 6.21771 C 76.6840 % 2.44 C
1113 04-03-2017 00:00:00 10.95451 C 72.5382 % 6.22 C
1114 05-03-2017 00:00:00 7.21354 C 86.9063 % 5.18 C
1115 06-03-2017 00:00:00 6.48333 C 88.9306 % 4.79 C
1116 07-03-2017 00:00:00 6.06806 C 92.0243 % 4.87 C
1117 08-03-2017 00:00:00 5.01528 C 95.6597 % 4.38 C
1118 09-03-2017 00:00:00 11.11146 C 85.3472 % 8.75 C
1119 10-03-2017 00:00:00 7.4684 C 74.9896 % 3.33 C
1120 11-03-2017 00:00:00 6.7316 C 76.7847 % 2.95 C
1121 12-03-2017 00:00:00 6.62813 C 73.0590 % 2.15 C
1122 13-03-2017 00:00:00 6.71007 C 76.5278 % 2.88 C
1123 14-03-2017 00:00:00 9.45625 C 79.7708 % 6.14 C
1124 15-03-2017 00:00:00 10.41493 C 79.8819 % 7.1 C
1125 16-03-2017 00:00:00 8.32569 C 79.1250 % 4.93 C
Sensor: Nr:Datum:Temp:Feuchte:Taupunkt:
Aussen-T/F 1126 17-03-2017 00:00:00 8.68507 C 77.3438 % 4.95 C
1127 18-03-2017 00:00:00 9.53889 C 87.9514 % 7.64 C
1128 19-03-2017 00:00:00 12.1559 C 84.9444 % 9.7 C
1129 20-03-2017 00:00:00 11.60278 C 74.2986 % 7.19 C
1130 21-03-2017 00:00:00 9.375 C 83.3090 % 6.69 C
1131 22-03-2017 00:00:00 5.39132 C 87.9861 % 3.57 C
1132 23-03-2017 00:00:00 8.8434 C 81.9097 % 5.93 C
1133 24-03-2017 00:00:00 9.49444 C 76.3194 % 5.54 C
1134 25-03-2017 00:00:00 9.21424 C 65.5590 % 3.11 C
1135 26-03-2017 00:00:00 9.36594 C 63.8080 % 2.87 C
1136 27-03-2017 00:00:00 8.83194 C 64.8194 % 2.59 C
1137 28-03-2017 00:00:00 10.73819 C 69.2431 % 5.34 C
1138 29-03-2017 00:00:00 12.89063 C 73.7014 % 8.31 C
1139 30-03-2017 00:00:00 14.33507 C 72.3819 % 9.44 C
1140 31-03-2017 00:00:00 13.69896 C 69.0938 % 8.14 C
1141 01-04-2017 00:00:00 13.59792 C 71.9792 % 8.65 C
1142 02-04-2017 00:00:00 11.71736 C 74.2222 % 7.29 C
1143 03-04-2017 00:00:00 10.47257 C 76.1042 % 6.45 C
1144 04-04-2017 00:00:00 9.3059 C 73.6285 % 4.85 C
1145 05-04-2017 00:00:00 8.78889 C 75.9444 % 4.79 C
1146 06-04-2017 00:00:00 8.65278 C 73.7292 % 4.23 C
1147 07-04-2017 00:00:00 11.31566 C 70.4578 % 6.14 C
1148 08-04-2017 00:00:00 14.59887 C 63.6780 % 7.8 C
1149 09-04-2017 00:00:00 12.46215 C 72.6910 % 7.7 C
1150 10-04-2017 00:00:00 10.93993 C 75.5174 % 6.79 C
Sensor: Nr:Datum:Temp:Feuchte:Taupunkt:
Aussen-T/F 1151 11-04-2017 00:00:00 9.67188 C 68.7778 % 4.22 C
1152 12-04-2017 00:00:00 11.34167 C 67.3993 % 5.53 C
1153 13-04-2017 00:00:00 11.57153 C 68.3403 % 5.95 C
1154 14-04-2017 00:00:00 9.77708 C 68.5660 % 4.28 C
1155 15-04-2017 00:00:00 9.0875 C 81.6493 % 6.12 C
1156 16-04-2017 00:00:00 7.52083 C 79.0590 % 4.13 C
1157 17-04-2017 00:00:00 6.82257 C 84.8090 % 4.45 C
1158 18-04-2017 00:00:00 5.52187 C 80.9167 % 2.51 C
1159 19-04-2017 00:00:00 4.23646 C 70.6042 % -0.62 C
1160 20-04-2017 00:00:00 4.68715 C 68.7882 % -0.54 C
1161 21-04-2017 00:00:00 7.98299 C 70.7431 % 3 C
1162 22-04-2017 00:00:00 9.60278 C 72.4063 % 4.89 C
1163 23-04-2017 00:00:00 7.34722 C 68.6632 % 1.98 C
1164 24-04-2017 00:00:00 8.25764 C 68.6424 % 2.84 C
1165 25-04-2017 00:00:00 8.07118 C 68.6493 % 2.67 C
1166 26-04-2017 00:00:00 7.03611 C 68.0208 % 1.55 C
1167 27-04-2017 00:00:00 7.07917 C 67.6528 % 1.51 C
1168 28-04-2017 00:00:00 6.15972 C 79.5104 % 2.89 C
1169 29-04-2017 00:00:00 8.79132 C 71.5069 % 3.93 C
1170 30-04-2017 00:00:00 11.04896 C 60.7951 % 3.78 C
1171 01-05-2017 00:00:00 10.13576 C 85.0347 % 7.74 C
1172 02-05-2017 00:00:00 9.00868 C 95.4549 % 8.32 C
1173 03-05-2017 00:00:00 10.15694 C 90.6042 % 8.69 C
1174 04-05-2017 00:00:00 11.64722 C 89.7361 % 10.02 C
1175 05-05-2017 00:00:00 11.58021 C 81.0417 % 8.44 C
Sensor: Nr:Datum:Temp:Feuchte:Taupunkt:
Aussen-T/F 1176 06-05-2017 00:00:00 12.91042 C 78.0139 % 9.17 C
1177 07-05-2017 00:00:00 13.1434 C 93.6319 % 12.14 C
1178 08-05-2017 00:00:00 9.64306 C 86.9063 % 7.57 C
1179 09-05-2017 00:00:00 9.69931 C 70.4861 % 4.6 C
1180 10-05-2017 00:00:00 10.29583 C 70.5590 % 5.19 C
1181 11-05-2017 00:00:00 14.23542 C 73.0590 % 9.48 C
1182 12-05-2017 00:00:00 15.89479 C 85.6250 % 13.49 C
1183 13-05-2017 00:00:00 17.24514 C 75.3472 % 12.85 C
1184 14-05-2017 00:00:00 16.17049 C 80.8993 % 12.89 C
1185 15-05-2017 00:00:00 15.43403 C 72.0104 % 10.42 C
1186 16-05-2017 00:00:00 18.86458 C 61.2049 % 11.24 C
1187 17-05-2017 00:00:00 20.20243 C 65.0521 % 13.43 C
1188 18-05-2017 00:00:00 17.96042 C 84.5729 % 15.32 C
1189 19-05-2017 00:00:00 13.45694 C 96.0694 % 12.84 C
1190 20-05-2017 00:00:00 12.04375 C 83.9931 % 9.43 C
1191 21-05-2017 00:00:00 13.43889 C 75.2118 % 9.14 C
1192 22-05-2017 00:00:00 16.05417 C 73.8090 % 11.39 C
1193 23-05-2017 00:00:00 18.46736 C 69.4410 % 12.78 C
1194 24-05-2017 00:00:00 16.81771 C 73.7639 % 12.11 C
1195 25-05-2017 00:00:00 18.59167 C 70.2604 % 13.07 C
1196 26-05-2017 00:00:00 18.71042 C 70.8472 % 13.31 C
1197 27-05-2017 00:00:00 21.17049 C 66.6285 % 14.72 C
1198 28-05-2017 00:00:00 21.21493 C 78.3993 % 17.31 C
1199 29-05-2017 00:00:00 23.54271 C 75.5660 % 18.97 C
1200 30-05-2017 00:00:00 21.97847 C 74.9549 % 17.33 C
Sensor: Nr:Datum:Temp:Feuchte:Taupunkt:
Aussen-T/F 1201 31-05-2017 00:00:00 18.61667 C 68.5278 % 12.72 C
1202 01-06-2017 00:00:00 18.99792 C 71.5590 % 13.74 C
1203 02-06-2017 00:00:00 19.04583 C 83.6771 % 16.22 C
1204 03-06-2017 00:00:00 18.89236 C 93.4132 % 17.81 C
1205 04-06-2017 00:00:00 16.44306 C 84.5556 % 13.83 C
1206 05-06-2017 00:00:00 16.50278 C 76.9792 % 12.46 C
1207 06-06-2017 00:00:00 15.18958 C 77.8750 % 11.36 C
1208 07-06-2017 00:00:00 13.87778 C 75.5347 % 9.63 C
1209 08-06-2017 00:00:00 18.08924 C 68.5382 % 12.21 C
1210 09-06-2017 00:00:00 16.93299 C 81.6319 % 13.77 C
1211 10-06-2017 00:00:00 17.78368 C 70.4792 % 12.35 C
1212 11-06-2017 00:00:00 20.38229 C 71.8993 % 15.15 C
1213 12-06-2017 00:00:00 20.21667 C 59.4410 % 12.07 C
1214 13-06-2017 00:00:00 17.4059 C 67.4549 % 11.32 C
1215 14-06-2017 00:00:00 18.66597 C 69.6042 % 13 C
1216 15-06-2017 00:00:00 21.18299 C 70.3333 % 15.57 C
1217 16-06-2017 00:00:00 18.97743 C 62.8646 % 11.75 C
1218 17-06-2017 00:00:00 17.05035 C 76.4444 % 12.88 C
1219 18-06-2017 00:00:00 21.54514 C 69.8229 % 15.8 C
1220 19-06-2017 00:00:00 22.06667 C 64.3160 % 15.02 C
1221 20-06-2017 00:00:00 23.55069 C 62.5590 % 15.99 C
1222 21-06-2017 00:00:00 25.2191 C 62.1146 % 17.45 C
1223 22-06-2017 00:00:00 23.325 C 77.8264 % 19.23 C
1224 23-06-2017 00:00:00 22.47014 C 68.4063 % 16.36 C
1225 24-06-2017 00:00:00 20.09028 C 64.8924 % 13.28 C
Sensor: Nr:Datum:Temp:Feuchte:Taupunkt:
Aussen-T/F 1226 25-06-2017 00:00:00 20.12639 C 70.0938 % 14.51 C
1227 26-06-2017 00:00:00 21.1184 C 67.1667 % 14.79 C
1228 27-06-2017 00:00:00 18.80104 C 85.3229 % 16.29 C
1229 28-06-2017 00:00:00 19.80208 C 90.8299 % 18.26 C
1230 29-06-2017 00:00:00 17.97535 C 86.2396 % 15.64 C
1231 30-06-2017 00:00:00 17.41624 C 77.3875 % 13.42 C
1232 01-07-2017 00:00:00 16.45451 C 89.6250 % 14.74 C
1233 02-07-2017 00:00:00 16.87188 C 88.2361 % 14.91 C
1234 03-07-2017 00:00:00 17.94201 C 72.9201 % 13.02 C
1235 04-07-2017 00:00:00 19.98993 C 68.9375 % 14.12 C
1236 05-07-2017 00:00:00 21.5875 C 69.0903 % 15.68 C
1237 06-07-2017 00:00:00 21.41701 C 76.5278 % 17.12 C
1238 07-07-2017 00:00:00 23.46076 C 73.7674 % 18.51 C
1239 08-07-2017 00:00:00 22.5559 C 70.5035 % 16.92 C
1240 09-07-2017 00:00:00 22.69271 C 74.1007 % 17.84 C
1241 10-07-2017 00:00:00 19.75243 C 93.9792 % 18.76 C
1242 11-07-2017 00:00:00 19.33264 C 81.8993 % 16.16 C
1243 12-07-2017 00:00:00 17.22951 C 89.4514 % 15.48 C
1244 13-07-2017 00:00:00 15.53958 C 75.6667 % 11.26 C
1245 14-07-2017 00:00:00 16.34653 C 77.4965 % 12.41 C
1246 15-07-2017 00:00:00 16.46389 C 74.5417 % 11.93 C
1247 16-07-2017 00:00:00 19.03924 C 81.1215 % 15.73 C
1248 17-07-2017 00:00:00 20.61007 C 81.2743 % 17.29 C
1249 18-07-2017 00:00:00 21.7625 C 75.4965 % 17.24 C
1250 19-07-2017 00:00:00 23.46806 C 73.3090 % 18.42 C
Sensor: Nr:Datum:Temp:Feuchte:Taupunkt:
Aussen-T/F 1251 20-07-2017 00:00:00 21.83889 C 79.5764 % 18.15 C
1252 21-07-2017 00:00:00 20.14583 C 71.6979 % 14.88 C
1253 22-07-2017 00:00:00 21.77813 C 82.2743 % 18.62 C
1254 23-07-2017 00:00:00 18.27639 C 78.7153 % 14.52 C
1255 24-07-2017 00:00:00 14.9816 C 91.3681 % 13.59 C
1256 25-07-2017 00:00:00 14.46979 C 96.2014 % 13.87 C
1257 26-07-2017 00:00:00 17.50729 C 86.0139 % 15.14 C
1258 27-07-2017 00:00:00 18.9184 C 89.6250 % 17.18 C
1259 28-07-2017 00:00:00 17.14236 C 83.5694 % 14.34 C
1260 29-07-2017 00:00:00 20.44271 C 81.0174 % 17.07 C
1261 30-07-2017 00:00:00 22.74236 C 73.6667 % 17.8 C
1262 31-07-2017 00:00:00 20.73542 C 77.8750 % 16.74 C
1263 01-08-2017 00:00:00 19.90799 C 94.6424 % 19.02 C
1264 02-08-2017 00:00:00 21.09306 C 86.4688 % 18.75 C
1265 03-08-2017 00:00:00 21.32153 C 83.4271 % 18.4 C
1266 04-08-2017 00:00:00 20.4309 C 76.2500 % 16.11 C
1267 05-08-2017 00:00:00 18.99826 C 79.7326 % 15.42 C
1268 06-08-2017 00:00:00 17.06181 C 74.4028 % 12.48 C
1269 07-08-2017 00:00:00 17.21319 C 74.5313 % 12.65 C
1270 08-08-2017 00:00:00 17.34063 C 86.7500 % 15.11 C
1271 09-08-2017 00:00:00 17.64167 C 77.9826 % 13.76 C
1272 10-08-2017 00:00:00 15.45139 C 94.6771 % 14.6 C
1273 11-08-2017 00:00:00 14.99271 C 95.3889 % 14.26 C
1274 12-08-2017 00:00:00 15.39965 C 94.4688 % 14.52 C
1275 13-08-2017 00:00:00 18.25694 C 84.2813 % 15.56 C
Sensor: Nr:Datum:Temp:Feuchte:Taupunkt:
Aussen-T/F 1276 14-08-2017 00:00:00 18.07396 C 87.2535 % 15.92 C
1277 15-08-2017 00:00:00 18.78299 C 93.5243 % 17.72 C
1278 16-08-2017 00:00:00 19.80486 C 87.2847 % 17.63 C
1279 17-08-2017 00:00:00 19.18438 C 87.3125 % 17.02 C
1280 18-08-2017 00:00:00 18.28819 C 94.1632 % 17.33 C
1281 19-08-2017 00:00:00 14.62049 C 90.6076 % 13.1 C
1282 20-08-2017 00:00:00 14.85243 C 86.3993 % 12.6 C
1283 21-08-2017 00:00:00 15.85833 C 82.2049 % 12.83 C
1284 22-08-2017 00:00:00 15.7316 C 84.9097 % 13.2 C
1285 23-08-2017 00:00:00 17.82812 C 84.2535 % 15.14 C
1286 24-08-2017 00:00:00 19.30625 C 82.1632 % 16.19 C
1287 25-08-2017 00:00:00 18.12049 C 89.3993 % 16.35 C
1288 26-08-2017 00:00:00 20.59861 C 92.9132 % 19.41 C
1289 27-08-2017 00:00:00 19.43507 C 89.5035 % 17.66 C
1290 28-08-2017 00:00:00 19.49063 C 85.7882 % 17.05 C
1291 29-08-2017 00:00:00 19.97986 C 86.3507 % 17.63 C
1292 30-08-2017 00:00:00 20.58819 C 89.0903 % 18.73 C
1293 31-08-2017 00:00:00 17.03194 C 87.1493 % 14.88 C
1294 01-09-2017 00:00:00 13.72639 C 88.3785 % 11.84 C
1295 02-09-2017 00:00:00 14.2625 C 89.4271 % 12.55 C
1296 03-09-2017 00:00:00 13.22257 C 87.7743 % 11.24 C
1297 04-09-2017 00:00:00 13.75208 C 90.0313 % 12.15 C
1298 05-09-2017 00:00:00 17.85347 C 90.3160 % 16.25 C
1299 06-09-2017 00:00:00 17.36389 C 78.5868 % 13.61 C
1300 07-09-2017 00:00:00 15.38472 C 80.6389 % 12.08 C
Sensor: Nr:Datum:Temp:Feuchte:Taupunkt:
Aussen-T/F 1301 08-09-2017 00:00:00 15.88958 C 80.7917 % 12.6 C
1302 09-09-2017 00:00:00 14.59236 C 91.5764 % 13.24 C
1303 10-09-2017 00:00:00 13.23924 C 88.7951 % 11.43 C
1304 11-09-2017 00:00:00 14.41667 C 84.9861 % 11.93 C
1305 12-09-2017 00:00:00 14.27674 C 84.4097 % 11.69 C
1306 13-09-2017 00:00:00 14.43993 C 87.5729 % 12.4 C
1307 14-09-2017 00:00:00 11.98194 C 92.1076 % 10.74 C
1308 15-09-2017 00:00:00 12.37917 C 88.0347 % 10.46 C
1309 16-09-2017 00:00:00 10.41007 C 88.3021 % 8.56 C
1310 17-09-2017 00:00:00 9.97118 C 94.9861 % 9.21 C
1311 18-09-2017 00:00:00 10.50764 C 90.8785 % 9.08 C
1312 19-09-2017 00:00:00 11.95903 C 92.7049 % 10.82 C
1313 20-09-2017 00:00:00 11.3184 C 92.6076 % 10.17 C
1314 21-09-2017 00:00:00 10.7559 C 92.2222 % 9.55 C
1315 22-09-2017 00:00:00 11.39757 C 92.7222 % 10.26 C
1316 23-09-2017 00:00:00 13.63785 C 89.4965 % 11.94 C
1317 24-09-2017 00:00:00 12.54826 C 93.5660 % 11.54 C
1318 25-09-2017 00:00:00 12.85729 C 92.9514 % 11.75 C
1319 26-09-2017 00:00:00 13.54097 C 92.1389 % 12.29 C
1320 27-09-2017 00:00:00 13.15069 C 94.1597 % 12.23 C
1321 28-09-2017 00:00:00 14.79861 C 93.9063 % 13.83 C
1322 29-09-2017 00:00:00 17.64722 C 91.7083 % 16.28 C
1323 30-09-2017 00:00:00 14.56597 C 95.2326 % 13.81 C
1324 01-10-2017 00:00:00 11.45937 C 95.0451 % 10.69 C
1325 02-10-2017 00:00:00 14.42951 C 92.9132 % 13.3 C
Sensor: Nr:Datum:Temp:Feuchte:Taupunkt:
Aussen-T/F 1326 03-10-2017 00:00:00 12.49618 C 88.9201 % 10.72 C
1327 04-10-2017 00:00:00 11.37812 C 88.0972 % 9.48 C
1328 05-10-2017 00:00:00 12.35868 C 85.7847 % 10.05 C
1329 06-10-2017 00:00:00 9.83438 C 91.6285 % 8.54 C
1330 07-10-2017 00:00:00 10.24653 C 89.7535 % 8.64 C
1331 08-10-2017 00:00:00 11.93993 C 93.6181 % 10.94 C
1332 09-10-2017 00:00:00 11.42222 C 93.6285 % 10.43 C
1333 10-10-2017 00:00:00 13.19062 C 93.1424 % 12.11 C
1334 11-10-2017 00:00:00 13.59722 C 90.6111 % 12.09 C
1335 12-10-2017 00:00:00 13.7684 C 84.9618 % 11.29 C
1336 13-10-2017 00:00:00 14.15556 C 91.8646 % 12.85 C
1337 14-10-2017 00:00:00 13.13611 C 95.3750 % 12.41 C
1338 15-10-2017 00:00:00 12.53021 C 95.9410 % 11.9 C
1339 16-10-2017 00:00:00 13.45347 C 95.6215 % 12.77 C
1340 17-10-2017 00:00:00 13.09201 C 95.8299 % 12.44 C
1341 18-10-2017 00:00:00 12.20313 C 95.8264 % 11.56 C
1342 19-10-2017 00:00:00 11.5059 C 95.8472 % 10.87 C
1343 20-10-2017 00:00:00 10.5122 C 88.5610 % 8.71 C
1344 21-10-2017 00:00:00 11.76076 C 91.4410 % 10.41 C
1345 22-10-2017 00:00:00 10.78507 C 85.4340 % 8.44 C
1346 23-10-2017 00:00:00 10.79653 C 87.4826 % 8.8 C
1347 24-10-2017 00:00:00 13.69826 C 91.2465 % 12.3 C
1348 25-10-2017 00:00:00 15.51111 C 87.4271 % 13.43 C
1349 26-10-2017 00:00:00 13.26736 C 91.1389 % 11.85 C
1350 27-10-2017 00:00:00 11.49132 C 89.5660 % 9.84 C
Sensor: Nr:Datum:Temp:Feuchte:Taupunkt:
Aussen-T/F 1351 28-10-2017 00:00:00 10.36076 C 83.1944 % 7.64 C
1352 29-10-2017 00:00:00 10.65694 C 82.5243 % 7.81 C
1353 30-10-2017 00:00:00 7.17326 C 85.5243 % 4.91 C
1354 31-10-2017 00:00:00 7.26806 C 85.6944 % 5.04 C
1355 01-11-2017 00:00:00 8.73021 C 85.5313 % 6.44 C
1356 02-11-2017 00:00:00 8.66389 C 87.8333 % 6.76 C
1357 03-11-2017 00:00:00 7.17014 C 93.6285 % 6.21 C
1358 04-11-2017 00:00:00 8.34132 C 94.7292 % 7.55 C
1359 05-11-2017 00:00:00 8.89965 C 92.2083 % 7.71 C
1360 06-11-2017 00:00:00 5.51424 C 92.8542 % 4.45 C
1361 07-11-2017 00:00:00 4.45868 C 95.0833 % 3.74 C
1362 08-11-2017 00:00:00 6.63854 C 96.5035 % 6.12 C
1363 09-11-2017 00:00:00 7.54028 C 95.7569 % 6.91 C
1364 10-11-2017 00:00:00 7.46563 C 90.7535 % 6.06 C
1365 11-11-2017 00:00:00 6.4559 C 93.8090 % 5.53 C
1366 12-11-2017 00:00:00 4.6809 C 96.1632 % 4.12 C
1367 13-11-2017 00:00:00 5.61111 C 92.8125 % 4.54 C
1368 14-11-2017 00:00:00 4.67951 C 94.3785 % 3.86 C
1369 15-11-2017 00:00:00 6.91389 C 90.0799 % 5.4 C
1370 16-11-2017 00:00:00 4.84201 C 93.1424 % 3.83 C
1371 17-11-2017 00:00:00 6.01007 C 95.7535 % 5.38 C
1372 18-11-2017 00:00:00 3.55278 C 91.3403 % 2.28 C
1373 19-11-2017 00:00:00 5.66389 C 89.5764 % 4.09 C
1374 20-11-2017 00:00:00 5.24618 C 91.6250 % 4 C
1375 21-11-2017 00:00:00 9.24063 C 90.6597 % 7.79 C
Sensor: Nr:Datum:Temp:Feuchte:Taupunkt:
Aussen-T/F 1376 22-11-2017 00:00:00 8.26528 C 88.1146 % 6.42 C
1377 23-11-2017 00:00:00 9.3059 C 88.0486 % 7.43 C
1378 24-11-2017 00:00:00 10.45451 C 92.4028 % 9.28 C
1379 25-11-2017 00:00:00 5.3059 C 95.5521 % 4.65 C
1380 26-11-2017 00:00:00 3.77986 C 88.7986 % 2.11 C
1381 27-11-2017 00:00:00 5.66632 C 87.1875 % 3.71 C
1382 28-11-2017 00:00:00 4.26181 C 94.5347 % 3.46 C
1383 29-11-2017 00:00:00 3.03576 C 95.4618 % 2.38 C
1384 30-11-2017 00:00:00 2.44201 C 95.3958 % 1.78 C
1385 01-12-2017 00:00:00 1.13021 C 95.6389 % 0.51 C
1386 02-12-2017 00:00:00 0.97604 C 94.2361 % 0.16 C
1387 03-12-2017 00:00:00 0.67674 C 93.3958 % -0.26 C
1388 04-12-2017 00:00:00 3.2816 C 95.5799 % 2.64 C
1389 05-12-2017 00:00:00 4.74826 C 93.4792 % 3.79 C
1390 06-12-2017 00:00:00 5.89792 C 90.1493 % 4.41 C
1391 07-12-2017 00:00:00 4.77986 C 86.2465 % 2.68 C
1392 08-12-2017 00:00:00 3.52014 C 88.7153 % 1.84 C
1393 09-12-2017 00:00:00 1.27569 C 83.4618 % -1.21 C
1394 10-12-2017 00:00:00 2.40903 C 88.7049 % 0.74 C
1395 11-12-2017 00:00:00 6.02118 C 93.7708 % 5.1 C
1396 12-12-2017 00:00:00 3.72292 C 84.9792 % 1.44 C
1397 13-12-2017 00:00:00 3.81597 C 89.6875 % 2.28 C
1398 14-12-2017 00:00:00 4.58611 C 90.0625 % 3.1 C
1399 15-12-2017 00:00:00 2.98611 C 95.5903 % 2.35 C
1400 16-12-2017 00:00:00 3.04167 C 95.9618 % 2.46 C
Sensor: Nr:Datum:Temp:Feuchte:Taupunkt:
Aussen-T/F 1401 17-12-2017 00:00:00 3.05208 C 92.1076 % 1.9 C
1402 18-12-2017 00:00:00 1.66944 C 95.4444 % 1.02 C
1403 19-12-2017 00:00:00 3.35556 C 97.1146 % 2.94 C
1404 20-12-2017 00:00:00 5.65625 C 97.6389 % 5.31 C
1405 21-12-2017 00:00:00 7.51667 C 97.5556 % 7.16 C
1406 22-12-2017 00:00:00 8.8125 C 97.8889 % 8.5 C
1407 23-12-2017 00:00:00 8.76389 C 93.7813 % 7.82 C
1408 24-12-2017 00:00:00 8.92292 C 88.6319 % 7.15 C
1409 25-12-2017 00:00:00 6.77708 C 85.7292 % 4.56 C
1410 26-12-2017 00:00:00 4.68299 C 90.7431 % 3.3 C
1411 27-12-2017 00:00:00 5.13993 C 92.8854 % 4.09 C
1412 28-12-2017 00:00:00 3.24826 C 88.2396 % 1.49 C
1413 29-12-2017 00:00:00 2.41944 C 88.1667 % 0.67 C
1414 30-12-2017 00:00:00 7.77187 C 90.7882 % 6.36 C
1415 31-12-2017 00:00:00 12.74549 C 82.5729 % 9.86 C
1416 01-01-2018 00:00:00 7.71458 C 84.2153 % 5.22 C
1417 02-01-2018 00:00:00 6.21076 C 88.1979 % 4.41 C
1418 03-01-2018 00:00:00 8.40313 C 84.5174 % 5.95 C
1419 04-01-2018 00:00:00 8.24792 C 89.7014 % 6.66 C
1420 05-01-2018 00:00:00 8.32257 C 89.6424 % 6.72 C
1421 06-01-2018 00:00:00 6.22188 C 96.7917 % 5.75 C
1422 07-01-2018 00:00:00 5.11458 C 92.0417 % 3.93 C
1423 08-01-2018 00:00:00 4.61597 C 89.1007 % 2.98 C
1424 09-01-2018 00:00:00 5.0191 C 93.0521 % 3.99 C
1425 10-01-2018 00:00:00 6.95243 C 92.3472 % 5.8 C
Sensor: Nr:Datum:Temp:Feuchte:Taupunkt:
Aussen-T/F 1426 11-01-2018 00:00:00 6.99653 C 95.0660 % 6.26 C
1427 12-01-2018 00:00:00 6.57708 C 95.7674 % 5.95 C
1428 13-01-2018 00:00:00 5.39062 C 89.7813 % 3.85 C
1429 14-01-2018 00:00:00 2.95174 C 85.5208 % 0.77 C
1430 15-01-2018 00:00:00 3.65833 C 91.1181 % 2.35 C
1431 16-01-2018 00:00:00 6.14618 C 85.7569 % 3.94 C
1432 17-01-2018 00:00:00 3.45868 C 86.7569 % 1.47 C
1433 18-01-2018 00:00:00 5.94167 C 81.9479 % 3.1 C
1434 19-01-2018 00:00:00 3.96146 C 86.6771 % 1.95 C
1435 20-01-2018 00:00:00 3.05937 C 91.0486 % 1.74 C
1436 21-01-2018 00:00:00 2.72951 C 93.5451 % 1.8 C
1437 22-01-2018 00:00:00 5.11563 C 93.7708 % 4.2 C
1438 23-01-2018 00:00:00 7.37049 C 88.6250 % 5.62 C
1439 24-01-2018 00:00:00 11.38021 C 86.3785 % 9.19 C
1440 25-01-2018 00:00:00 9.87465 C 92.0243 % 8.64 C
1441 26-01-2018 00:00:00 6.62222 C 95.7396 % 5.99 C
1442 27-01-2018 00:00:00 4.73299 C 95.1771 % 4.03 C
1443 28-01-2018 00:00:00 7.29028 C 89.6285 % 5.7 C
1444 29-01-2018 00:00:00 9.82882 C 85.7674 % 7.56 C
1445 30-01-2018 00:00:00 5.41111 C 90.5104 % 3.99 C
1446 31-01-2018 00:00:00 7.52153 C 91.0938 % 6.16 C
1447 01-02-2018 00:00:00 3.10243 C 90.1632 % 1.65 C
1448 02-02-2018 00:00:00 3.41285 C 90.8958 % 2.07 C
1449 03-02-2018 00:00:00 3.47118 C 87.7292 % 1.63 C
1450 04-02-2018 00:00:00 1.1434 C 87.0208 % -0.77 C
Sensor: Nr:Datum:Temp:Feuchte:Taupunkt:
Aussen-T/F 1451 05-02-2018 00:00:00 0.32431 C 82.9236 % -2.23 C
1452 06-02-2018 00:00:00 -0.78056 C 89.0174 % -2.36 C
1453 07-02-2018 00:00:00 -0.06111 C 91.5799 % -1.26 C
1454 08-02-2018 00:00:00 -2.18819 C 88.7396 % -3.79 C
1455 09-02-2018 00:00:00 -1.96007 C 92.3854 % -3.03 C
1456 10-02-2018 00:00:00 2.22257 C 88.0660 % 0.46 C
1457 11-02-2018 00:00:00 3.32535 C 86.3333 % 1.27 C
1458 12-02-2018 00:00:00 2.1059 C 85.9479 % 0.01 C
1459 13-02-2018 00:00:00 -0.32674 C 85.2257 % -2.5 C
1460 14-02-2018 00:00:00 -1.52222 C 83.5069 % -3.95 C
1461 15-02-2018 00:00:00 1.83299 C 89.2535 % 0.26 C
1462 16-02-2018 00:00:00 2.01597 C 96.2500 % 1.48 C
1463 17-02-2018 00:00:00 0.40521 C 93.6354 % -0.5 C
1464 18-02-2018 00:00:00 -1.01701 C 92.6701 % -2.05 C
1465 19-02-2018 00:00:00 1.11667 C 88.7049 % -0.53 C
1466 20-02-2018 00:00:00 0.74271 C 87.0313 % -1.16 C
1467 21-02-2018 00:00:00 1.21181 C 77.1493 % -2.34 C
1468 22-02-2018 00:00:00 -0.03507 C 74.0938 % -4.09 C
1469 23-02-2018 00:00:00 -0.725 C 62.2674 % -7.03 C
1470 24-02-2018 00:00:00 -1.57049 C 63.0625 % -7.67 C
1471 25-02-2018 00:00:00 -2.70729 C 52.6701 % -11.03 C
1472 26-02-2018 00:00:00 -4.18854 C 66.9375 % -9.4 C
1473 27-02-2018 00:00:00 -6.00417 C 70.8264 % -10.43 C
1474 28-02-2018 00:00:00 -6.7066 C 65.9757 % -11.99 C
1475 01-03-2018 00:00:00 -2.91424 C 54.5035 % -10.79 C
Sensor: Nr:Datum:Temp:Feuchte:Taupunkt:
Aussen-T/F 1476 02-03-2018 00:00:00 -2.40208 C 62.9826 % -8.48 C
1477 03-03-2018 00:00:00 -0.40937 C 89.6736 % -1.89 C
1478 04-03-2018 00:00:00 4.02986 C 90.9965 % 2.7 C
1479 05-03-2018 00:00:00 5.96979 C 85.9965 % 3.81 C
1480 06-03-2018 00:00:00 4.90694 C 86.9583 % 2.92 C
1481 07-03-2018 00:00:00 5.39792 C 90.0556 % 3.9 C
1482 08-03-2018 00:00:00 6.19653 C 83.8368 % 3.67 C
1483 09-03-2018 00:00:00 5.56528 C 93.9514 % 4.67 C
1484 10-03-2018 00:00:00 10.03125 C 92.4792 % 8.87 C
1485 11-03-2018 00:00:00 10.51493 C 91.3854 % 9.17 C
1486 12-03-2018 00:00:00 9.7 C 90.2813 % 8.19 C
1487 13-03-2018 00:00:00 7.76667 C 88.1215 % 5.93 C
1488 14-03-2018 00:00:00 6.86458 C 83.6076 % 4.29 C
1489 15-03-2018 00:00:00 6.40382 C 83.6319 % 3.84 C
1490 16-03-2018 00:00:00 7.64097 C 94.7813 % 6.86 C
1491 17-03-2018 00:00:00 -0.44516 C 83.0573 % -2.96 C
1492 18-03-2018 00:00:00 -1.64028 C 75.3299 % -5.42 C
1493 19-03-2018 00:00:00 -0.54479 C 65.7778 % -6.15 C
1494 20-03-2018 00:00:00 0.29653 C 73.5035 % -3.87 C
1495 21-03-2018 00:00:00 1.2059 C 76.4132 % -2.47 C
1496 22-03-2018 00:00:00 3.06319 C 89.6667 % 1.54 C
1497 23-03-2018 00:00:00 6.14028 C 89.0799 % 4.48 C
1498 24-03-2018 00:00:00 5.20069 C 79.8715 % 2.02 C
1499 25-03-2018 00:00:00 5.42862 C 76.5217 % 1.64 C
1500 26-03-2018 00:00:00 7.61146 C 73.0313 % 3.1 C
Sensor: Nr:Datum:Temp:Feuchte:Taupunkt:
Aussen-T/F 1501 27-03-2018 00:00:00 5.82222 C 83.6181 % 3.27 C
1502 28-03-2018 00:00:00 8.50799 C 92.0278 % 7.29 C
1503 29-03-2018 00:00:00 7.11424 C 75.6701 % 3.12 C
1504 30-03-2018 00:00:00 6.82813 C 81.6910 % 3.92 C
1505 31-03-2018 00:00:00 8.09792 C 78.7083 % 4.63 C
1506 01-04-2018 00:00:00 7.66979 C 81.5451 % 4.72 C
1507 02-04-2018 00:00:00 8.78611 C 74.8715 % 4.58 C
1508 03-04-2018 00:00:00 13.35 C 67.7257 % 7.51 C
1509 04-04-2018 00:00:00 11.17187 C 85.0486 % 8.76 C
1510 05-04-2018 00:00:00 8.16042 C 84.2049 % 5.66 C
1511 06-04-2018 00:00:00 6.97187 C 72.9167 % 2.46 C
1512 07-04-2018 00:00:00 12.50035 C 66.5174 % 6.44 C
1513 08-04-2018 00:00:00 14.90417 C 67.3368 % 8.91 C
1514 09-04-2018 00:00:00 13.73333 C 72.7188 % 8.93 C
1515 10-04-2018 00:00:00 13.3816 C 78.1875 % 9.66 C
1516 11-04-2018 00:00:00 11.50035 C 87.5035 % 9.5 C
1517 12-04-2018 00:00:00 13.06493 C 80.5000 % 9.79 C
1518 13-04-2018 00:00:00 10.32188 C 88.1458 % 8.45 C
1519 14-04-2018 00:00:00 13.08403 C 76.3056 % 9.01 C
1520 15-04-2018 00:00:00 14.37465 C 81.8542 % 11.32 C
1521 16-04-2018 00:00:00 13.42882 C 78.5417 % 9.78 C
1522 17-04-2018 00:00:00 13.72569 C 74.7569 % 9.33 C
1523 18-04-2018 00:00:00 15.73264 C 69.7882 % 10.23 C
1524 19-04-2018 00:00:00 17.21806 C 66.2847 % 10.88 C
1525 20-04-2018 00:00:00 17.08681 C 67.8229 % 11.1 C
Sensor: Nr:Datum:Temp:Feuchte:Taupunkt:
Aussen-T/F 1526 21-04-2018 00:00:00 18.09931 C 71.2639 % 12.82 C
1527 22-04-2018 00:00:00 18.53681 C 73.1042 % 13.63 C
1528 23-04-2018 00:00:00 18.01181 C 70.6181 % 12.6 C
1529 24-04-2018 00:00:00 14.03854 C 72.5938 % 9.2 C
1530 25-04-2018 00:00:00 13.47917 C 75.5694 % 9.25 C
1531 26-04-2018 00:00:00 11.09167 C 65.0868 % 4.79 C
1532 27-04-2018 00:00:00 11.96181 C 67.8333 % 6.21 C
1533 28-04-2018 00:00:00 12.62917 C 72.8854 % 7.9 C
1534 29-04-2018 00:00:00 14.24792 C 85.8194 % 11.91 C
1535 30-04-2018 00:00:00 13.44931 C 77.7604 % 9.65 C
1536 01-05-2018 00:00:00 9.59063 C 69.6354 % 4.32 C
1537 02-05-2018 00:00:00 9.44549 C 75.6910 % 5.38 C
1538 03-05-2018 00:00:00 12.35347 C 68.5729 % 6.74 C
1539 04-05-2018 00:00:00 13.14618 C 65.4722 % 6.83 C
1540 05-05-2018 00:00:00 15.50764 C 61.2708 % 8.09 C
1541 06-05-2018 00:00:00 17.0059 C 57.6563 % 8.6 C
1542 07-05-2018 00:00:00 17.60312 C 61.7674 % 10.19 C
1543 08-05-2018 00:00:00 18.08264 C 62.5556 % 10.83 C
1544 09-05-2018 00:00:00 17.125 C 71.3160 % 11.89 C
1545 10-05-2018 00:00:00 14.09271 C 87.0729 % 11.98 C
1546 11-05-2018 00:00:00 14.47951 C 77.2778 % 10.55 C
1547 12-05-2018 00:00:00 16.39236 C 75.1597 % 11.99 C
1548 13-05-2018 00:00:00 14.62278 C 93.1317 % 13.53 C
1549 14-05-2018 00:00:00 16.77361 C 89.0556 % 14.96 C
1550 15-05-2018 00:00:00 15.91597 C 75.1875 % 11.53 C
Sensor: Nr:Datum:Temp:Feuchte:Taupunkt:
Aussen-T/F 1551 16-05-2018 00:00:00 15.4941 C 83.2118 % 12.66 C
1552 17-05-2018 00:00:00 13.78333 C 73.6285 % 9.16 C
1553 18-05-2018 00:00:00 12.14792 C 74.4757 % 7.75 C
1554 19-05-2018 00:00:00 13.63299 C 73.7118 % 9.03 C
1555 20-05-2018 00:00:00 14.00278 C 84.2917 % 11.4 C
1556 21-05-2018 00:00:00 17.43819 C 78.1806 % 13.6 C
1557 22-05-2018 00:00:00 16.97917 C 82.6944 % 14.02 C
1558 23-05-2018 00:00:00 17.30243 C 88.5104 % 15.39 C
1559 24-05-2018 00:00:00 17.125 C 87.8507 % 15.1 C
1560 25-05-2018 00:00:00 19.81944 C 80.2535 % 16.32 C
1561 26-05-2018 00:00:00 20.84826 C 76.3958 % 16.54 C
1562 27-05-2018 00:00:00 20.3191 C 81.4236 % 17.03 C
1563 28-05-2018 00:00:00 21.47083 C 81.6424 % 18.2 C
1564 29-05-2018 00:00:00 20.77292 C 85.9514 % 18.34 C
1565 30-05-2018 00:00:00 21.53403 C 77.5799 % 17.45 C
1566 31-05-2018 00:00:00 22.62083 C 74.5313 % 17.86 C
1567 01-06-2018 00:00:00 19.10729 C 88.6667 % 17.19 C
1568 02-06-2018 00:00:00 19.22917 C 81.5243 % 15.99 C
1569 03-06-2018 00:00:00 19.42708 C 77.5903 % 15.41 C
1570 04-06-2018 00:00:00 20.95938 C 74.2257 % 16.2 C
1571 05-06-2018 00:00:00 20.70035 C 77.2569 % 16.58 C
1572 06-06-2018 00:00:00 21.09375 C 74.2222 % 16.33 C
1573 07-06-2018 00:00:00 21.15174 C 80.5868 % 17.68 C
1574 08-06-2018 00:00:00 20.94375 C 84.2361 % 18.18 C
1575 09-06-2018 00:00:00 21.9125 C 83.9896 % 19.08 C
Sensor: Nr:Datum:Temp:Feuchte:Taupunkt:
Aussen-T/F 1576 10-06-2018 00:00:00 21.38239 C 86.1831 % 18.98 C
1577 11-06-2018 00:00:00 19.19444 C 93.4549 % 18.11 C
1578 12-06-2018 00:00:00 16.41979 C 90.3194 % 14.83 C
1579 13-06-2018 00:00:00 14.8941 C 79.6285 % 11.41 C
1580 14-06-2018 00:00:00 14.94132 C 80.6806 % 11.65 C
1581 15-06-2018 00:00:00 17.84236 C 88.0243 % 15.83 C
1582 16-06-2018 00:00:00 19.99306 C 78.6493 % 16.17 C
1583 17-06-2018 00:00:00 17.94167 C 75.1979 % 13.49 C
1584 18-06-2018 00:00:00 17.81667 C 77.9757 % 13.93 C
1585 19-06-2018 00:00:00 18.89201 C 84.5799 % 16.24 C
1586 20-06-2018 00:00:00 23.07639 C 72.0069 % 17.75 C
1587 21-06-2018 00:00:00 17.92639 C 69.4514 % 12.26 C
1588 22-06-2018 00:00:00 13.74097 C 68.4549 % 8.04 C
1589 23-06-2018 00:00:00 13.76424 C 76.4514 % 9.7 C
1590 24-06-2018 00:00:00 15.88264 C 72.8299 % 11.02 C
1591 25-06-2018 00:00:00 17.09201 C 78.1806 % 13.26 C
1592 26-06-2018 00:00:00 17.67396 C 74.6806 % 13.13 C
1593 27-06-2018 00:00:00 19.15694 C 67.6979 % 13.05 C
1594 28-06-2018 00:00:00 20.71076 C 61.1806 % 12.97 C
1595 29-06-2018 00:00:00 24.11424 C 56.0451 % 14.8 C
1596 30-06-2018 00:00:00 22.06215 C 56.9201 % 13.13 C
1597 01-07-2018 00:00:00 20.86597 C 42.7396 % 7.74 C
1598 02-07-2018 00:00:00 20.44792 C 45.9861 % 8.44 C
1599 03-07-2018 00:00:00 20.73299 C 50.1319 % 9.98 C
1600 04-07-2018 00:00:00 18.84167 C 80.7778 % 15.47 C
Sensor: Nr:Datum:Temp:Feuchte:Taupunkt:
Aussen-T/F 1601 05-07-2018 00:00:00 19.41111 C 88.5799 % 17.48 C
1602 06-07-2018 00:00:00 20.03056 C 75.7014 % 15.61 C
1603 07-07-2018 00:00:00 20.66701 C 67.2326 % 14.38 C
1604 08-07-2018 00:00:00 19.71181 C 58.3160 % 11.3 C
1605 09-07-2018 00:00:00 19.32361 C 67.3299 % 13.12 C
1606 10-07-2018 00:00:00 17.13715 C 73.0729 % 12.28 C
1607 11-07-2018 00:00:00 16.10729 C 82.2396 % 13.08 C
1608 12-07-2018 00:00:00 19.59688 C 80.3924 % 16.13 C
1609 13-07-2018 00:00:00 19.71166 C 77.4240 % 15.65 C
1610 14-07-2018 00:00:00 21.51493 C 67.9236 % 15.34 C
1611 15-07-2018 00:00:00 21.63021 C 64.0521 % 14.54 C
1612 16-07-2018 00:00:00 22.30868 C 61.5347 % 14.56 C
1613 17-07-2018 00:00:00 21.01771 C 65.8507 % 14.39 C
1614 18-07-2018 00:00:00 20.29479 C 65.8750 % 13.71 C
1615 19-07-2018 00:00:00 20.92431 C 60.5069 % 13 C
1616 20-07-2018 00:00:00 21.5559 C 61.6319 % 13.88 C
1617 21-07-2018 00:00:00 20.6125 C 77.3958 % 16.52 C
1618 22-07-2018 00:00:00 21.61458 C 70.0486 % 15.92 C
1619 23-07-2018 00:00:00 22.37917 C 67.0868 % 15.97 C
1620 24-07-2018 00:00:00 23.70278 C 63.7465 % 16.43 C
1621 25-07-2018 00:00:00 25.50069 C 57.3160 % 16.44 C
1622 26-07-2018 00:00:00 27.18785 C 54.2326 % 17.14 C
1623 27-07-2018 00:00:00 26.11146 C 50.4861 % 15.03 C
1624 28-07-2018 00:00:00 21.97743 C 76.3924 % 17.63 C
1625 29-07-2018 00:00:00 23.50521 C 66.0451 % 16.8 C
Sensor: Nr:Datum:Temp:Feuchte:Taupunkt:
Aussen-T/F 1626 30-07-2018 00:00:00 24.29931 C 64.4410 % 17.16 C
1627 31-07-2018 00:00:00 25.46875 C 61.9722 % 17.65 C
1628 01-08-2018 00:00:00 20.74271 C 87.4931 % 18.59 C
1629 02-08-2018 00:00:00 23.73056 C 74.2257 % 18.87 C
1630 03-08-2018 00:00:00 26.4684 C 61.0278 % 18.34 C
1631 04-08-2018 00:00:00 26.38714 C 57.9821 % 17.45 C
1632 05-08-2018 00:00:00 24.70486 C 59.6424 % 16.32 C
1633 06-08-2018 00:00:00 24.16944 C 57.6563 % 15.29 C
1634 07-08-2018 00:00:00 26.73646 C 55.5104 % 17.09 C
1635 08-08-2018 00:00:00 25.29618 C 61.3021 % 17.31 C
1636 09-08-2018 00:00:00 20.57778 C 82.7639 % 17.54 C
1637 10-08-2018 00:00:00 18.35486 C 65.3924 % 11.76 C
1638 11-08-2018 00:00:00 18.37083 C 59.8611 % 10.44 C
1639 12-08-2018 00:00:00 18.15451 C 63.0729 % 11.02 C
1640 13-08-2018 00:00:00 17.68854 C 81.8924 % 14.56 C
1641 14-08-2018 00:00:00 18.53958 C 84.6563 % 15.91 C
1642 15-08-2018 00:00:00 19.375 C 79.2465 % 15.69 C
1643 16-08-2018 00:00:00 20.74444 C 71.2743 % 15.36 C
1644 17-08-2018 00:00:00 19.75903 C 76.6632 % 15.54 C
1645 18-08-2018 00:00:00 18.88785 C 68.7326 % 13.02 C
1646 19-08-2018 00:00:00 20.30521 C 67.4132 % 14.07 C
1647 20-08-2018 00:00:00 20.84444 C 73.5938 % 15.95 C
1648 21-08-2018 00:00:00 21.96979 C 70.6528 % 16.39 C
1649 22-08-2018 00:00:00 23.24757 C 65.7500 % 16.48 C
1650 23-08-2018 00:00:00 22.88681 C 69.0660 % 16.91 C
Sensor: Nr:Datum:Temp:Feuchte:Taupunkt:
Aussen-T/F 1651 24-08-2018 00:00:00 19.03368 C 65.5556 % 12.44 C
1652 25-08-2018 00:00:00 14.525 C 69.8438 % 9.09 C
1653 26-08-2018 00:00:00 13.80556 C 67.7882 % 7.96 C
1654 27-08-2018 00:00:00 18.12604 C 70.1493 % 12.6 C
1655 28-08-2018 00:00:00 18.12917 C 67.6632 % 12.06 C
1656 29-08-2018 00:00:00 17.15556 C 80.1528 % 13.71 C
1657 30-08-2018 00:00:00 17.22778 C 75.0799 % 12.78 C
1658 31-08-2018 00:00:00 15.05521 C 72.2951 % 10.11 C
1659 01-09-2018 00:00:00 14.30833 C 69.0799 % 8.72 C
1660 02-09-2018 00:00:00 14.27188 C 76.5347 % 10.21 C
1661 03-09-2018 00:00:00 18.05417 C 80.5556 % 14.66 C
1662 04-09-2018 00:00:00 20.01736 C 79.3507 % 16.33 C
1663 05-09-2018 00:00:00 20.91701 C 73.3229 % 15.97 C
1664 06-09-2018 00:00:00 18.07014 C 87.7049 % 16 C
1665 07-09-2018 00:00:00 15.72639 C 86.9479 % 13.56 C
1666 08-09-2018 00:00:00 13.53889 C 76.5139 % 9.49 C
1667 09-09-2018 00:00:00 16.94236 C 70.6667 % 11.58 C
1668 10-09-2018 00:00:00 17.5 C 71.7396 % 12.34 C
1669 11-09-2018 00:00:00 18.85868 C 70.4028 % 13.36 C
1670 12-09-2018 00:00:00 19.08646 C 71.2882 % 13.77 C
1671 13-09-2018 00:00:00 16.3625 C 85.6632 % 13.96 C
1672 14-09-2018 00:00:00 16.95174 C 71.3056 % 11.73 C
1673 15-09-2018 00:00:00 15.14028 C 70.3368 % 9.78 C
1674 16-09-2018 00:00:00 14.7184 C 71.4063 % 9.6 C
1675 17-09-2018 00:00:00 16.79306 C 68.7813 % 11.03 C
Sensor: Nr:Datum:Temp:Feuchte:Taupunkt:
Aussen-T/F 1676 18-09-2018 00:00:00 19.05208 C 70.2292 % 13.51 C
1677 19-09-2018 00:00:00 20.67951 C 71.7535 % 15.4 C
1678 20-09-2018 00:00:00 19.17153 C 72.3785 % 14.09 C
1679 21-09-2018 00:00:00 15.93472 C 78.7778 % 12.26 C
1680 22-09-2018 00:00:00 12.7566 C 77.2465 % 8.88 C
1681 23-09-2018 00:00:00 12.33056 C 94.4167 % 11.46 C
1682 24-09-2018 00:00:00 9.92396 C 85.7674 % 7.66 C
1683 25-09-2018 00:00:00 8.38785 C 85.7431 % 6.14 C
1684 26-09-2018 00:00:00 8.82917 C 82.7153 % 6.06 C
1685 27-09-2018 00:00:00 11.32708 C 83.9236 % 8.71 C
1686 28-09-2018 00:00:00 10.18526 C 91.0982 % 8.8 C
1687 29-09-2018 00:00:00 8.2941 C 81.8056 % 5.37 C
1688 30-09-2018 00:00:00 7.9427 C 82.6726 % 5.18 C
1689 01-10-2018 00:00:00 9.71701 C 81.2778 % 6.67 C
1690 02-10-2018 00:00:00 9.17604 C 87.5625 % 7.22 C
1691 03-10-2018 00:00:00 12.2809 C 82.0521 % 9.31 C
1692 04-10-2018 00:00:00 9.78056 C 87.1875 % 7.75 C
1693 05-10-2018 00:00:00 10.63021 C 88.2743 % 8.77 C
1694 06-10-2018 00:00:00 12.7691 C 89.0000 % 11 C
1695 07-10-2018 00:00:00 13.00243 C 89.0833 % 11.25 C
1696 08-10-2018 00:00:00 10.50347 C 88.5521 % 8.69 C
1697 09-10-2018 00:00:00 11.75035 C 91.4340 % 10.4 C
1698 10-10-2018 00:00:00 13.21285 C 90.3646 % 11.67 C
1699 11-10-2018 00:00:00 14.21701 C 88.2674 % 12.31 C
1700 12-10-2018 00:00:00 15.87882 C 86.2604 % 13.59 C
Sensor: Nr:Datum:Temp:Feuchte:Taupunkt:
Aussen-T/F 1701 13-10-2018 00:00:00 15.57986 C 84.2257 % 12.93 C
1702 14-10-2018 00:00:00 14.79965 C 83.0174 % 11.95 C
1703 15-10-2018 00:00:00 13.825 C 84.5903 % 11.28 C
1704 16-10-2018 00:00:00 12.87292 C 86.4653 % 10.67 C
1705 17-10-2018 00:00:00 12.82847 C 88.3368 % 10.95 C
1706 18-10-2018 00:00:00 14.04618 C 88.4722 % 12.17 C
1707 19-10-2018 00:00:00 12.08785 C 87.8889 % 10.14 C
1708 20-10-2018 00:00:00 11.03542 C 86.2431 % 8.83 C
1709 21-10-2018 00:00:00 7.3066 C 91.4479 % 6.01 C
1710 22-10-2018 00:00:00 7.67014 C 90.5417 % 6.22 C
1711 23-10-2018 00:00:00 9.04306 C 84.6944 % 6.61 C
1712 24-10-2018 00:00:00 14.07604 C 86.3472 % 11.83 C
1713 25-10-2018 00:00:00 12.94722 C 83.3368 % 10.19 C
1714 26-10-2018 00:00:00 10.21354 C 80.8299 % 7.07 C
1715 27-10-2018 00:00:00 6.27118 C 90.9340 % 4.9 C
1716 28-10-2018 00:00:00 5.67778 C 83.1424 % 3.05 C
1717 29-10-2018 00:00:00 6.43264 C 84.8160 % 4.07 C
1718 30-10-2018 00:00:00 6.2809 C 91.5868 % 5.02 C
1719 31-10-2018 00:00:00 7.45382 C 86.8194 % 5.41 C
1720 01-11-2018 00:00:00 6.13194 C 95.0799 % 5.4 C
1721 02-11-2018 00:00:00 8.86597 C 94.0486 % 7.96 C
1722 03-11-2018 00:00:00 3.50521 C 96.4549 % 3 C
1723 04-11-2018 00:00:00 6.86007 C 95.2361 % 6.15 C
1724 05-11-2018 00:00:00 10.39097 C 92.1042 % 9.17 C
1725 06-11-2018 00:00:00 8.41806 C 95.6667 % 7.77 C
Sensor: Nr:Datum:Temp:Feuchte:Taupunkt:
Aussen-T/F 1726 07-11-2018 00:00:00 9.32118 C 92.4167 % 8.16 C
1727 08-11-2018 00:00:00 10.425 C 89.0660 % 8.7 C
1728 09-11-2018 00:00:00 9.62604 C 92.9861 % 8.55 C
1729 10-11-2018 00:00:00 11.90347 C 90.1250 % 10.34 C
1730 11-11-2018 00:00:00 12.04618 C 90.5972 % 10.56 C
1731 12-11-2018 00:00:00 13.70069 C 90.0278 % 12.1 C
1732 13-11-2018 00:00:00 10.46076 C 92.4965 % 9.3 C
1733 14-11-2018 00:00:00 6.18264 C 96.5938 % 5.68 C
1734 15-11-2018 00:00:00 6.9816 C 91.5660 % 5.71 C
1735 16-11-2018 00:00:00 5.92778 C 89.7882 % 4.38 C
1736 17-11-2018 00:00:00 2.75417 C 88.6667 % 1.07 C
1737 18-11-2018 00:00:00 1.8566 C 79.8333 % -1.25 C
1738 19-11-2018 00:00:00 3.57014 C 81.2153 % 0.66 C
1739 20-11-2018 00:00:00 3.50972 C 80.1910 % 0.43 C
1740 21-11-2018 00:00:00 2.50312 C 88.6979 % 0.83 C
1741 22-11-2018 00:00:00 2.91458 C 88.0903 % 1.14 C
1742 23-11-2018 00:00:00 0.10868 C 95.3785 % -0.54 C
1743 24-11-2018 00:00:00 4.74792 C 96.2674 % 4.21 C
1744 25-11-2018 00:00:00 5.98785 C 95.8785 % 5.38 C
1745 26-11-2018 00:00:00 6.65625 C 87.8958 % 4.8 C
1746 27-11-2018 00:00:00 4.12465 C 83.8368 % 1.64 C
1747 28-11-2018 00:00:00 3.7 C 91.6667 % 2.47 C
1748 29-11-2018 00:00:00 5.67875 C 92.7735 % 4.6 C
1749 30-11-2018 00:00:00 7.44514 C 94.6875 % 6.65 C
1750 01-12-2018 00:00:00 7.48993 C 91.5833 % 6.21 C
Sensor: Nr:Datum:Temp:Feuchte:Taupunkt:
Aussen-T/F 1751 02-12-2018 00:00:00 11.28056 C 93.0868 % 10.21 C
1752 03-12-2018 00:00:00 11.76701 C 95.7708 % 11.11 C
1753 04-12-2018 00:00:00 6.48715 C 90.9653 % 5.12 C
1754 05-12-2018 00:00:00 3.60729 C 96.1806 % 3.06 C
1755 06-12-2018 00:00:00 9.76042 C 93.8924 % 8.83 C
1756 07-12-2018 00:00:00 11.22882 C 86.6667 % 9.09 C
1757 08-12-2018 00:00:00 7.97361 C 88.5035 % 6.19 C
1758 09-12-2018 00:00:00 8.02544 C 87.9756 % 6.16 C
1759 10-12-2018 00:00:00 4.96771 C 91.2639 % 3.67 C
1760 11-12-2018 00:00:00 3.84375 C 93.7118 % 2.93 C
1761 12-12-2018 00:00:00 2.70801 C 95.4948 % 2.06 C
1762 13-12-2018 00:00:00 1.36181 C 87.4618 % -0.49 C
1763 14-12-2018 00:00:00 1.15521 C 77.4757 % -2.33 C
1764 15-12-2018 00:00:00 0.62683 C 78.6202 % -2.65 C
1765 16-12-2018 00:00:00 0.77743 C 90.5382 % -0.59 C
1766 17-12-2018 00:00:00 4.19722 C 94.8194 % 3.44 C
1767 18-12-2018 00:00:00 5.08229 C 90.2917 % 3.63 C
1768 19-12-2018 00:00:00 6.54495 C 88.8537 % 4.84 C
1769 20-12-2018 00:00:00 7.58741 C 89.6818 % 6 C
1770 21-12-2018 00:00:00 10.78507 C 86.4514 % 8.62 C
1771 22-12-2018 00:00:00 9.94266 C 85.9091 % 7.7 C
1772 23-12-2018 00:00:00 8.60868 C 93.6563 % 7.65 C
1773 24-12-2018 00:00:00 4.88924 C 90.8750 % 3.53 C
1774 25-12-2018 00:00:00 1.85208 C 93.1667 % 0.87 C
1775 26-12-2018 00:00:00 -0.91736 C 95.5035 % -1.54 C
Sensor: Nr:Datum:Temp:Feuchte:Taupunkt:
Aussen-T/F 1776 27-12-2018 00:00:00 0.08125 C 95.8090 % -0.51 C
1777 28-12-2018 00:00:00 0.225 C 94.9375 % -0.49 C
1778 29-12-2018 00:00:00 2.70972 C 93.3576 % 1.75 C
1779 30-12-2018 00:00:00 7.50313 C 87.4271 % 5.55 C
1780 31-12-2018 00:00:00 7.59271 C 96.4201 % 7.06 C
1781 01-01-2019 00:00:00 7.09271 C 92.0833 % 5.9 C
1782 02-01-2019 00:00:00 3.70104 C 82.7847 % 1.05 C
1783 03-01-2019 00:00:00 2.03715 C 93.0000 % 1.03 C
1784 04-01-2019 00:00:00 3.13785 C 91.9826 % 1.96 C
1785 05-01-2019 00:00:00 5.92632 C 93.3825 % 4.94 C
1786 06-01-2019 00:00:00 5.76944 C 91.7674 % 4.54 C
1787 07-01-2019 00:00:00 5.50417 C 89.8819 % 3.98 C
1788 08-01-2019 00:00:00 6.62222 C 85.9688 % 4.45 C
1789 09-01-2019 00:00:00 3.90486 C 83.8368 % 1.43 C
1790 10-01-2019 00:00:00 2.05694 C 83.7708 % -0.39 C
1791 11-01-2019 00:00:00 2.82847 C 94.7882 % 2.08 C
1792 12-01-2019 00:00:00 5.96702 C 92.9734 % 4.92 C
1793 13-01-2019 00:00:00 7.73715 C 94.1493 % 6.86 C
1794 14-01-2019 00:00:00 5.07083 C 89.5625 % 3.5 C
1795 15-01-2019 00:00:00 4.78854 C 89.1007 % 3.15 C
1796 16-01-2019 00:00:00 5.27187 C 85.4861 % 3.04 C
1797 17-01-2019 00:00:00 5.0066 C 87.3924 % 3.09 C
1798 18-01-2019 00:00:00 0.77569 C 91.8611 % -0.39 C
1799 19-01-2019 00:00:00 -2.72396 C 93.3299 % -3.65 C
1800 20-01-2019 00:00:00 -4.97187 C 92.8854 % -5.94 C
Sensor: Nr:Datum:Temp:Feuchte:Taupunkt:
Aussen-T/F 1801 21-01-2019 00:00:00 -6.20972 C 93.8472 % -7.04 C
1802 22-01-2019 00:00:00 -4.96667 C 92.0938 % -6.05 C
1803 23-01-2019 00:00:00 -1.57743 C 89.4028 % -3.09 C
1804 24-01-2019 00:00:00 -1.91736 C 83.8854 % -4.27 C
1805 25-01-2019 00:00:00 0.28403 C 88.1354 % -1.44 C
1806 26-01-2019 00:00:00 4.48229 C 92.3229 % 3.35 C
1807 27-01-2019 00:00:00 5.94583 C 90.0868 % 4.45 C
1808 28-01-2019 00:00:00 3.17118 C 90.8854 % 1.83 C
1809 29-01-2019 00:00:00 1.73021 C 89.6875 % 0.22 C
1810 30-01-2019 00:00:00 0.45972 C 93.3264 % -0.49 C
1811 31-01-2019 00:00:00 -0.09826 C 94.7188 % -0.84 C
1812 01-02-2019 00:00:00 1.74826 C 95.6389 % 1.13 C
1813 02-02-2019 00:00:00 2.46701 C 96.8611 % 2.02 C
1814 03-02-2019 00:00:00 2.7 C 88.6910 % 1.02 C
1815 04-02-2019 00:00:00 1.83229 C 87.0625 % -0.09 C
1816 05-02-2019 00:00:00 4.34375 C 81.1771 % 1.41 C
1817 06-02-2019 00:00:00 1.17639 C 89.9688 % -0.28 C
1818 07-02-2019 00:00:00 5.09549 C 88.0833 % 3.29 C
1819 08-02-2019 00:00:00 7.42604 C 83.5417 % 4.83 C
1820 09-02-2019 00:00:00 8.6309 C 79.8056 % 5.35 C
1821 10-02-2019 00:00:00 7.96076 C 88.4965 % 6.18 C
1822 11-02-2019 00:00:00 4.86736 C 86.4931 % 2.81 C
1823 12-02-2019 00:00:00 3.71597 C 86.6563 % 1.7 C
1824 13-02-2019 00:00:00 1.77951 C 91.5833 % 0.56 C
1825 14-02-2019 00:00:00 0.77431 C 92.7674 % -0.26 C
Sensor: Nr:Datum:Temp:Feuchte:Taupunkt:
Aussen-T/F 1826 15-02-2019 00:00:00 2.33854 C 89.2917 % 0.76 C

Maximal/Minimal-Werte vom 16.02.2014 - 15.02.2019

Sensor Min Max Avg
Temp
(Aussen-T/F)
-10.6 °C
22-01-2017  07:55:00
38.6 °C
04-07-2015  16:30:00
11.23 °C
Feuchte
(Aussen-T/F)
18 %
17-07-2015  15:55:00
100 %
23-02-2014  12:40:00
83.15 %
Taupunkt
(Aussen-T/F)
-11.99 C
28-02-2018  00:00:00
21.29 C
04-07-2015  00:00:00
8.34 C

Die Daten stammen von einer Davis Vantage Pro 2 Wetter-Station und werden unter Linux mit der Software wview2wettercgi und aufbereitet. Alle Angaben erfolgen ohne Gewähr für ihre Vollständigkeit oder Richtigkeit.
Kontakt: Rainer Krienke krienke@uni-koblenz.de . Meine Webseiten an der Uni Koblenz oder privat.
Version: $Revision: 0.78 $